BAW251 EGLL-SCEL

Flight info

Callsign BAW251
Flight time N/A
Altitude 33000
Route GOGSI N621 SAM M195 LORKU/N0490F350 DCT EBOMO DCT KORUL DCT RIPEL DCT GUNTI/M086F360 DCT 36N020W 33N025W 30N030W 23N040W/M086F380 DCT BUTUX/N0499F380 DCT 14N050W 10N055W DCT TRAPP/N0489F400 UM527 TIM UL322 MNS UZ74 RCO/N0487F410 UL309 GRAFO/N0490F400 UL309 EMPEX/N0485F410 UL309 LOA UQ814 LITUX UT293 ENTOP UQ815 SIMOK SIMOK7B
Aircraft B789/H-SDE1E2E3FGHIJ2J3J4J5M1RWXY/LB1D1

Departure

Time 2026-05-07 20:08
Airport London Heathrow Airport (EGLL)

Arrival

Time N/A
Airport Comodoro Arturo Merino Benítez International Airport (SCEL)
Time Latitude Longitude Altitude Speed Heading
2026-05-07 19:31 51.46915 -0.48233 95 ft 0 kts 89°
2026-05-07 19:59 51.46915 -0.48271 76 ft 4 kts 89°
2026-05-07 19:59 51.46915 -0.48306 91 ft 4 kts 91°
2026-05-07 19:59 51.46919 -0.48340 93 ft 4 kts 128°
2026-05-07 20:00 51.46933 -0.48355 91 ft 4 kts 178°
2026-05-07 20:00 51.46959 -0.48355 92 ft 4 kts 179°
2026-05-07 20:00 51.46968 -0.48355 92 ft 0 kts 179°
2026-05-07 20:02 51.46967 -0.48355 92 ft 0 kts 179°
2026-05-07 20:02 51.46961 -0.48355 92 ft 2 kts 179°
2026-05-07 20:03 51.46942 -0.48355 93 ft 4 kts 179°
2026-05-07 20:03 51.46908 -0.48355 94 ft 7 kts 179°
2026-05-07 20:03 51.46847 -0.48354 91 ft 11 kts 179°
2026-05-07 20:03 51.46760 -0.48360 92 ft 12 kts 202°
2026-05-07 20:04 51.46743 -0.48422 91 ft 8 kts 267°
2026-05-07 20:04 51.46741 -0.48553 91 ft 16 kts 270°
2026-05-07 20:04 51.46729 -0.48719 94 ft 12 kts 231°
2026-05-07 20:04 51.46661 -0.48747 93 ft 10 kts 182°
2026-05-07 20:05 51.46606 -0.48766 94 ft 3 kts 196°
2026-05-07 20:05 51.46603 -0.48767 94 ft 0 kts 196°
2026-05-07 20:06 51.46601 -0.48768 93 ft 2 kts 196°
2026-05-07 20:06 51.46546 -0.48788 92 ft 15 kts 181°
2026-05-07 20:06 51.46479 -0.48674 95 ft 14 kts 94°
2026-05-07 20:07 51.46478 -0.48637 93 ft 0 kts 90°
2026-05-07 20:07 51.46478 -0.48633 93 ft 3 kts 90°
2026-05-07 20:07 51.46479 -0.48331 93 ft 57 kts 89°
2026-05-07 20:07 51.46481 -0.47361 92 ft 115 kts 89°
2026-05-07 20:08 51.46488 -0.45784 91 ft 166 kts 90°
2026-05-07 20:08 51.46502 -0.43803 542 ft 179 kts 92°
2026-05-07 20:08 51.46331 -0.41665 893 ft 212 kts 116°
2026-05-07 20:08 51.45471 -0.39530 1321 ft 245 kts 126°
2026-05-07 20:09 51.44491 -0.37234 2330 ft 248 kts 123°
2026-05-07 20:09 51.43547 -0.34891 3204 ft 253 kts 129°
2026-05-07 20:09 51.42131 -0.33218 4014 ft 257 kts 154°
2026-05-07 20:10 51.38610 -0.33356 5618 ft 266 kts 209°
2026-05-07 20:10 51.37079 -0.35147 6055 ft 280 kts 220°
2026-05-07 20:10 51.35640 -0.37241 6030 ft 276 kts 223°
2026-05-07 20:10 51.34259 -0.39328 6026 ft 272 kts 222°
2026-05-07 20:11 51.32859 -0.41358 6027 ft 272 kts 221°
2026-05-07 20:11 51.31488 -0.43435 6026 ft 272 kts 231°
2026-05-07 20:11 51.30436 -0.45961 6030 ft 273 kts 243°
2026-05-07 20:11 51.29773 -0.48800 6049 ft 273 kts 255°
2026-05-07 20:12 51.29246 -0.51715 6033 ft 273 kts 253°
2026-05-07 20:12 51.28716 -0.54632 6043 ft 273 kts 254°
2026-05-07 20:12 51.28344 -0.57587 6025 ft 272 kts 272°
2026-05-07 20:12 51.28481 -0.60593 6048 ft 273 kts 271°
2026-05-07 20:13 51.28489 -0.63632 6050 ft 274 kts 270°
2026-05-07 20:13 51.28514 -0.66676 6040 ft 273 kts 271°
2026-05-07 20:13 51.28576 -0.69708 6053 ft 274 kts 272°
2026-05-07 20:13 51.28640 -0.72753 6042 ft 274 kts 272°
2026-05-07 20:14 51.28693 -0.75793 6052 ft 273 kts 271°
2026-05-07 20:14 51.28742 -0.78781 6038 ft 273 kts 271°
2026-05-07 20:14 51.28795 -0.81873 6228 ft 276 kts 271°
2026-05-07 20:14 51.28845 -0.84876 7261 ft 268 kts 271°
2026-05-07 20:15 51.28895 -0.87865 8077 ft 270 kts 271°
2026-05-07 20:15 51.28943 -0.90870 8940 ft 271 kts 271°
2026-05-07 20:15 51.28992 -0.93883 9755 ft 271 kts 271°
2026-05-07 20:15 51.29012 -0.96882 10308 ft 281 kts 264°
2026-05-07 20:16 51.28342 -0.99927 10379 ft 306 kts 239°
2026-05-07 20:16 51.26830 -1.02484 10476 ft 332 kts 216°
2026-05-07 20:16 51.24838 -1.04586 10627 ft 353 kts 214°
2026-05-07 20:16 51.22758 -1.06678 11395 ft 354 kts 213°
2026-05-07 20:17 51.20666 -1.08798 12033 ft 359 kts 213°
2026-05-07 20:17 51.18556 -1.10983 12726 ft 363 kts 213°
2026-05-07 20:17 51.16427 -1.13185 13405 ft 367 kts 213°
2026-05-07 20:17 51.14266 -1.15396 14052 ft 371 kts 213°
2026-05-07 20:18 51.12080 -1.17627 14674 ft 374 kts 213°
2026-05-07 20:18 51.09879 -1.19879 15286 ft 378 kts 213°
2026-05-07 20:18 51.07662 -1.22148 15874 ft 381 kts 213°
2026-05-07 20:18 51.05423 -1.24434 16477 ft 384 kts 213°
2026-05-07 20:19 51.03162 -1.26738 17063 ft 387 kts 213°
2026-05-07 20:19 51.00889 -1.29053 17629 ft 390 kts 213°
2026-05-07 20:19 50.99336 -1.30633 18019 ft 393 kts 213°
2026-05-07 20:19 50.97027 -1.32980 18548 ft 396 kts 213°
2026-05-07 20:20 50.94702 -1.35342 19039 ft 398 kts 213°
2026-05-07 20:20 50.92379 -1.37758 19525 ft 400 kts 214°
2026-05-07 20:20 50.90055 -1.40218 19998 ft 403 kts 214°
2026-05-07 20:20 50.87738 -1.42640 20482 ft 405 kts 213°
2026-05-07 20:21 50.85372 -1.45083 20925 ft 407 kts 213°
2026-05-07 20:21 50.82993 -1.47547 21386 ft 410 kts 213°
2026-05-07 20:21 50.80571 -1.50066 21823 ft 412 kts 213°
2026-05-07 20:21 50.78166 -1.52562 22229 ft 415 kts 213°
2026-05-07 20:22 50.75745 -1.55065 22637 ft 417 kts 213°
2026-05-07 20:22 50.73313 -1.57576 23034 ft 419 kts 213°
2026-05-07 20:22 50.70858 -1.60109 23429 ft 422 kts 213°
2026-05-07 20:22 50.68399 -1.62647 23773 ft 424 kts 213°
2026-05-07 20:23 50.65957 -1.65161 24095 ft 426 kts 213°
2026-05-07 20:23 50.63471 -1.67715 24407 ft 427 kts 213°
2026-05-07 20:23 50.60982 -1.70271 24769 ft 427 kts 213°
2026-05-07 20:23 50.58482 -1.72835 25056 ft 430 kts 213°
2026-05-07 20:24 50.55937 -1.75442 25354 ft 431 kts 213°
2026-05-07 20:24 50.53448 -1.77988 25637 ft 433 kts 213°
2026-05-07 20:24 50.50916 -1.80574 25924 ft 435 kts 213°
2026-05-07 20:24 50.48370 -1.83171 26209 ft 437 kts 213°
2026-05-07 20:25 50.45814 -1.85776 26495 ft 439 kts 213°
2026-05-07 20:25 50.43248 -1.88387 26764 ft 441 kts 213°
2026-05-07 20:25 50.40670 -1.91007 27044 ft 442 kts 213°
2026-05-07 20:25 50.38084 -1.93630 27345 ft 443 kts 213°
2026-05-07 20:26 50.35491 -1.96259 27599 ft 445 kts 213°
2026-05-07 20:26 50.32887 -1.98895 27873 ft 447 kts 213°
2026-05-07 20:26 50.30272 -2.01538 28123 ft 448 kts 213°
2026-05-07 20:26 50.27647 -2.04188 28373 ft 450 kts 213°
2026-05-07 20:27 50.25012 -2.06845 28643 ft 452 kts 213°
2026-05-07 20:27 50.22360 -2.09491 28881 ft 453 kts 212°
2026-05-07 20:27 50.19670 -2.12086 29133 ft 455 kts 212°
2026-05-07 20:27 50.16968 -2.14684 29357 ft 457 kts 212°
2026-05-07 20:28 50.14269 -2.17320 29611 ft 458 kts 213°
2026-05-07 20:28 50.11564 -2.19970 29843 ft 460 kts 212°
2026-05-07 20:28 50.08844 -2.22607 30073 ft 461 kts 212°
2026-05-07 20:28 50.06113 -2.25243 30279 ft 463 kts 212°
2026-05-07 20:29 50.03376 -2.27891 30483 ft 464 kts 212°
2026-05-07 20:29 50.00631 -2.30550 30679 ft 465 kts 212°
2026-05-07 20:29 49.97876 -2.33210 30897 ft 467 kts 212°
2026-05-07 20:29 49.95116 -2.35868 31085 ft 468 kts 212°
2026-05-07 20:30 49.92344 -2.38535 31265 ft 469 kts 212°
2026-05-07 20:30 49.89609 -2.41171 31509 ft 469 kts 212°
2026-05-07 20:30 49.86804 -2.43872 31796 ft 468 kts 212°
2026-05-07 20:30 49.84073 -2.46495 32080 ft 467 kts 212°
2026-05-07 20:31 49.81313 -2.49140 32363 ft 466 kts 212°
2026-05-07 20:31 49.78556 -2.51780 32644 ft 466 kts 212°
2026-05-07 20:31 49.75800 -2.54417 32890 ft 466 kts 212°
2026-05-07 20:31 49.73039 -2.57055 33013 ft 468 kts 212°
2026-05-07 20:32 49.70260 -2.59706 33012 ft 469 kts 212°
2026-05-07 20:32 49.64728 -2.64972 33012 ft 466 kts 212°
2026-05-07 20:33 49.59209 -2.70212 33029 ft 466 kts 212°
2026-05-07 20:33 49.53695 -2.75433 33024 ft 465 kts 212°
2026-05-07 20:34 49.48178 -2.80643 33013 ft 465 kts 212°
2026-05-07 20:34 49.42670 -2.85831 33001 ft 464 kts 212°
2026-05-07 20:35 49.37158 -2.91008 33005 ft 465 kts 212°
2026-05-07 20:35 49.31627 -2.96189 33009 ft 466 kts 212°
2026-05-07 20:36 49.26084 -3.01368 32999 ft 466 kts 212°
2026-05-07 20:36 49.20545 -3.06530 32999 ft 466 kts 212°
2026-05-07 20:37 49.15007 -3.11677 33010 ft 466 kts 212°
2026-05-07 20:37 49.09456 -3.16822 33012 ft 467 kts 212°
2026-05-07 20:38 49.03932 -3.21928 33018 ft 468 kts 212°
2026-05-07 20:38 48.98317 -3.27106 33014 ft 469 kts 212°
2026-05-07 20:39 48.92786 -3.32192 33012 ft 467 kts 212°
2026-05-07 20:39 48.87235 -3.37283 33010 ft 465 kts 212°
2026-05-07 20:40 48.81681 -3.42364 33015 ft 467 kts 212°
2026-05-07 20:40 48.76107 -3.47449 33020 ft 468 kts 212°
2026-05-07 20:41 48.70509 -3.52543 33024 ft 469 kts 212°
2026-05-07 20:41 48.64923 -3.57612 33022 ft 467 kts 212°
2026-05-07 20:42 48.59354 -3.62654 33004 ft 466 kts 212°
2026-05-07 20:42 48.53800 -3.67669 33010 ft 469 kts 212°
2026-05-07 20:43 48.48194 -3.72717 33008 ft 469 kts 212°
2026-05-07 20:43 48.42585 -3.77755 33010 ft 469 kts 212°
2026-05-07 20:44 48.36968 -3.82786 32995 ft 470 kts 212°
2026-05-07 20:44 48.31333 -3.87823 33007 ft 472 kts 213°
2026-05-07 20:45 48.25691 -3.92850 33005 ft 471 kts 213°
2026-05-07 20:45 48.20055 -3.97860 33005 ft 470 kts 213°
2026-05-07 20:46 48.14434 -4.02843 33009 ft 470 kts 213°
2026-05-07 20:46 48.08782 -4.07843 33028 ft 474 kts 213°
2026-05-07 20:47 48.03143 -4.12816 33025 ft 473 kts 213°
2026-05-07 20:47 47.97464 -4.17812 33035 ft 473 kts 213°
2026-05-07 20:48 47.91796 -4.22785 33010 ft 473 kts 213°
2026-05-07 20:48 47.86105 -4.27767 33014 ft 475 kts 213°
2026-05-07 20:49 47.80447 -4.32830 33008 ft 473 kts 216°
2026-05-07 20:49 47.74848 -4.38004 33004 ft 474 kts 215°
2026-05-07 20:50 47.69246 -4.43213 32993 ft 476 kts 215°
2026-05-07 20:50 47.63628 -4.48409 32999 ft 475 kts 215°
2026-05-07 20:51 47.58030 -4.53574 32991 ft 473 kts 215°
2026-05-07 20:51 47.52437 -4.58726 32995 ft 474 kts 215°
2026-05-07 20:52 47.46835 -4.63867 33000 ft 475 kts 215°
2026-05-07 20:52 47.41240 -4.68995 32997 ft 476 kts 215°
2026-05-07 20:53 47.35608 -4.74138 33001 ft 476 kts 215°
2026-05-07 20:53 47.29967 -4.79279 33002 ft 476 kts 215°
2026-05-07 20:54 47.24327 -4.84406 32996 ft 477 kts 215°
2026-05-07 20:54 47.18672 -4.89534 32996 ft 477 kts 215°
2026-05-07 20:55 47.13017 -4.94648 32997 ft 477 kts 215°
2026-05-07 20:55 47.07353 -4.99758 32999 ft 479 kts 216°
2026-05-07 20:56 47.01689 -5.04855 32996 ft 481 kts 216°
2026-05-07 20:56 46.95990 -5.09969 32993 ft 479 kts 216°
2026-05-07 20:57 46.90308 -5.15056 32987 ft 478 kts 216°
2026-05-07 20:57 46.84625 -5.20132 32976 ft 479 kts 216°
2026-05-07 20:58 46.78923 -5.25212 32987 ft 481 kts 216°
2026-05-07 20:58 46.73210 -5.30286 33003 ft 481 kts 216°
2026-05-07 20:59 46.67478 -5.35370 33004 ft 483 kts 216°
2026-05-07 20:59 46.61744 -5.40436 33004 ft 482 kts 216°
2026-05-07 21:00 46.56022 -5.45484 32997 ft 481 kts 216°
2026-05-07 21:00 46.50293 -5.50524 32993 ft 482 kts 216°
2026-05-07 21:01 46.44558 -5.55557 32996 ft 482 kts 216°
2026-05-07 21:01 46.38849 -5.60553 32983 ft 483 kts 216°
2026-05-07 21:02 46.33092 -5.65579 32977 ft 482 kts 216°
2026-05-07 21:02 46.27352 -5.70580 32974 ft 481 kts 216°
2026-05-07 21:03 46.21624 -5.75556 32964 ft 481 kts 216°
2026-05-07 21:03 46.15883 -5.80534 32975 ft 482 kts 216°
2026-05-07 21:04 46.10120 -5.85515 32978 ft 483 kts 216°
2026-05-07 21:04 46.04359 -5.90483 32975 ft 482 kts 216°
2026-05-07 21:05 45.98649 -5.95396 32967 ft 480 kts 216°
2026-05-07 21:05 45.92926 -6.00307 32968 ft 479 kts 216°
2026-05-07 21:06 45.87198 -6.05213 32965 ft 480 kts 216°
2026-05-07 21:06 45.81444 -6.10126 32967 ft 482 kts 216°
2026-05-07 21:07 45.75688 -6.15031 32965 ft 481 kts 216°
2026-05-07 21:07 45.69938 -6.19917 32964 ft 480 kts 216°
2026-05-07 21:08 45.64192 -6.24790 32959 ft 479 kts 216°
2026-05-07 21:08 45.58467 -6.29631 32955 ft 476 kts 216°
2026-05-07 21:09 45.52789 -6.34424 32954 ft 478 kts 216°
2026-05-07 21:09 45.47051 -6.39254 32957 ft 480 kts 216°
2026-05-07 21:10 45.41305 -6.44079 32954 ft 479 kts 216°
2026-05-07 21:10 45.35577 -6.48879 32952 ft 477 kts 216°
2026-05-07 21:11 45.29858 -6.53659 32947 ft 476 kts 216°
2026-05-07 21:11 45.22248 -6.60002 32943 ft 476 kts 215°
2026-05-07 21:12 45.16542 -6.64745 32933 ft 474 kts 215°
2026-05-07 21:12 45.10852 -6.69465 32936 ft 474 kts 215°
2026-05-07 21:13 45.05157 -6.74176 32937 ft 475 kts 215°
2026-05-07 21:13 44.99451 -6.78886 32950 ft 475 kts 215°
2026-05-07 21:14 44.93742 -6.83587 32935 ft 475 kts 215°
2026-05-07 21:14 44.88037 -6.88275 32938 ft 474 kts 215°
2026-05-07 21:15 44.82705 -6.93542 32948 ft 464 kts 229°
2026-05-07 21:15 44.78457 -7.00250 32952 ft 462 kts 233°
2026-05-07 21:16 44.74260 -7.07098 32932 ft 461 kts 233°
2026-05-07 21:16 44.70067 -7.13912 32933 ft 460 kts 232°
2026-05-07 21:17 44.65871 -7.20718 32933 ft 461 kts 232°
2026-05-07 21:17 44.61670 -7.27514 32925 ft 460 kts 232°
2026-05-07 21:18 44.57475 -7.34283 32921 ft 460 kts 232°
2026-05-07 21:18 44.53272 -7.41052 32924 ft 461 kts 232°
2026-05-07 21:19 44.49053 -7.47827 32926 ft 462 kts 232°
2026-05-07 21:19 44.44850 -7.54562 32930 ft 463 kts 232°
2026-05-07 21:20 44.40617 -7.61330 32923 ft 461 kts 231°
2026-05-07 21:20 44.36399 -7.68055 32920 ft 459 kts 231°
2026-05-07 21:21 44.32196 -7.74742 32918 ft 458 kts 231°
2026-05-07 21:21 44.27984 -7.81428 32919 ft 459 kts 231°
2026-05-07 21:22 44.23755 -7.88124 32919 ft 461 kts 231°
2026-05-07 21:22 44.19511 -7.94829 32917 ft 461 kts 231°
2026-05-07 21:23 44.15275 -8.01505 32915 ft 459 kts 231°
2026-05-07 21:23 44.11058 -8.08135 32903 ft 455 kts 231°
2026-05-07 21:24 44.06853 -8.14732 32897 ft 457 kts 231°
2026-05-07 21:24 44.02656 -8.21300 32901 ft 458 kts 231°
2026-05-07 21:25 43.98411 -8.27928 32905 ft 458 kts 231°
2026-05-07 21:25 43.94177 -8.34523 32908 ft 457 kts 230°
2026-05-07 21:26 43.89952 -8.41089 32891 ft 455 kts 230°
2026-05-07 21:26 43.85733 -8.47632 32893 ft 456 kts 230°
2026-05-07 21:27 43.81494 -8.54189 32888 ft 457 kts 230°
2026-05-07 21:27 43.77245 -8.60748 32891 ft 458 kts 230°
2026-05-07 21:28 43.72990 -8.67300 32896 ft 458 kts 230°
2026-05-07 21:28 43.68732 -8.73844 32886 ft 457 kts 229°
2026-05-07 21:29 43.64513 -8.80308 32890 ft 455 kts 229°
2026-05-07 21:29 43.60271 -8.86796 32888 ft 455 kts 229°
2026-05-07 21:30 43.56031 -8.93266 32887 ft 454 kts 229°
2026-05-07 21:30 43.51794 -8.99716 32890 ft 454 kts 229°
2026-05-07 21:31 43.47552 -9.06160 32889 ft 455 kts 229°
2026-05-07 21:31 43.43282 -9.12632 32897 ft 459 kts 228°
2026-05-07 21:32 43.38985 -9.19129 32904 ft 459 kts 228°
2026-05-07 21:32 43.34691 -9.25608 32904 ft 458 kts 228°
2026-05-07 21:33 43.30398 -9.32070 32904 ft 458 kts 228°
2026-05-07 21:33 43.26104 -9.38519 32903 ft 457 kts 228°
2026-05-07 21:34 43.21839 -9.44912 32903 ft 457 kts 227°
2026-05-07 21:34 43.17540 -9.51340 33243 ft 454 kts 227°
2026-05-07 21:35 43.15416 -9.54509 33708 ft 450 kts 227°
2026-05-07 21:35 43.13304 -9.57658 34049 ft 448 kts 227°
2026-05-07 21:35 43.11200 -9.60792 34329 ft 447 kts 227°
2026-05-07 21:35 43.09144 -9.63850 34600 ft 445 kts 227°
2026-05-07 21:36 43.07051 -9.66962 34876 ft 444 kts 227°
2026-05-07 21:36 43.04961 -9.70065 35147 ft 443 kts 227°
2026-05-07 21:36 43.02876 -9.73156 35414 ft 441 kts 227°
2026-05-07 21:36 43.00798 -9.76235 35666 ft 440 kts 227°
2026-05-07 21:37 42.98723 -9.79305 35941 ft 438 kts 227°
2026-05-07 21:37 42.96656 -9.82360 36194 ft 437 kts 227°
2026-05-07 21:37 42.94597 -9.85402 36449 ft 436 kts 226°
2026-05-07 21:37 42.92537 -9.88440 36650 ft 436 kts 226°
2026-05-07 21:38 42.90475 -9.91477 36819 ft 437 kts 226°
2026-05-07 21:38 42.88408 -9.94520 36907 ft 439 kts 226°
2026-05-07 21:38 42.84254 -10.00626 36903 ft 438 kts 226°
2026-05-07 21:39 42.80149 -10.06645 36903 ft 436 kts 226°
2026-05-07 21:39 42.76023 -10.12684 36908 ft 436 kts 226°
2026-05-07 21:40 42.71876 -10.18740 36911 ft 438 kts 226°
2026-05-07 21:40 42.67712 -10.24808 36924 ft 440 kts 226°
2026-05-07 21:41 42.63532 -10.30887 36932 ft 440 kts 226°
2026-05-07 21:41 42.59357 -10.36946 36931 ft 439 kts 226°
2026-05-07 21:42 42.55179 -10.42995 36928 ft 439 kts 226°
2026-05-07 21:42 42.51001 -10.49033 36918 ft 440 kts 225°
2026-05-07 21:43 42.46831 -10.55046 36923 ft 442 kts 225°
2026-05-07 21:43 42.42618 -10.61109 36927 ft 442 kts 225°
2026-05-07 21:44 42.38394 -10.67175 36937 ft 443 kts 225°
2026-05-07 21:44 42.34170 -10.73227 36932 ft 442 kts 225°
2026-05-07 21:45 42.29955 -10.79255 36929 ft 440 kts 225°
2026-05-07 21:45 42.25686 -10.85165 36929 ft 439 kts 224°
2026-05-07 21:46 42.21404 -10.91077 36939 ft 442 kts 224°
2026-05-07 21:46 42.17066 -10.96975 36937 ft 444 kts 223°
2026-05-07 21:47 42.12727 -11.02901 36939 ft 443 kts 223°
2026-05-07 21:47 42.08391 -11.08793 36941 ft 442 kts 223°
2026-05-07 21:48 42.04061 -11.14671 36941 ft 442 kts 223°
2026-05-07 21:48 41.99753 -11.20506 36937 ft 443 kts 223°
2026-05-07 21:49 41.95411 -11.26375 36940 ft 443 kts 223°
2026-05-07 21:49 41.91057 -11.32248 36967 ft 444 kts 223°
2026-05-07 21:50 41.86688 -11.38129 36935 ft 445 kts 223°
2026-05-07 21:50 41.82316 -11.44002 36932 ft 444 kts 223°
2026-05-07 21:51 41.77966 -11.49834 36932 ft 441 kts 223°
2026-05-07 21:51 41.73654 -11.55603 36932 ft 441 kts 223°
2026-05-07 21:52 41.69310 -11.61403 36929 ft 441 kts 223°
2026-05-07 21:52 41.64958 -11.67202 36929 ft 442 kts 223°
2026-05-07 21:53 41.60601 -11.72996 36934 ft 442 kts 223°
2026-05-07 21:53 41.56243 -11.78780 36933 ft 442 kts 223°
2026-05-07 21:54 41.51881 -11.84557 36932 ft 442 kts 223°
2026-05-07 21:54 41.47518 -11.90323 36929 ft 441 kts 222°
2026-05-07 21:55 41.43156 -11.96078 36930 ft 441 kts 222°
2026-05-07 21:55 41.38824 -12.01781 36930 ft 440 kts 222°
2026-05-07 21:56 41.34458 -12.07517 36926 ft 443 kts 222°
2026-05-07 21:56 41.30059 -12.13286 36934 ft 445 kts 222°
2026-05-07 21:57 41.25646 -12.19061 36932 ft 445 kts 222°
2026-05-07 21:57 41.21234 -12.24823 36936 ft 444 kts 222°
2026-05-07 21:58 41.16824 -12.30572 36935 ft 444 kts 222°
2026-05-07 21:58 41.12416 -12.36305 36934 ft 444 kts 222°
2026-05-07 21:59 41.08010 -12.42026 36934 ft 444 kts 221°
2026-05-07 21:59 41.03573 -12.47773 36931 ft 447 kts 221°
2026-05-07 22:00 40.99125 -12.53527 36932 ft 447 kts 221°
2026-05-07 22:00 40.94674 -12.59270 36933 ft 447 kts 221°
2026-05-07 22:01 40.90253 -12.64964 36933 ft 447 kts 221°
2026-05-07 22:01 40.85799 -12.70689 36934 ft 447 kts 221°
2026-05-07 22:02 40.81339 -12.76411 36931 ft 447 kts 221°
2026-05-07 22:02 40.76861 -12.82144 36930 ft 450 kts 221°
2026-05-07 22:03 40.72365 -12.87890 36930 ft 449 kts 221°
2026-05-07 22:03 40.67880 -12.93610 36926 ft 448 kts 221°
2026-05-07 22:04 40.63393 -12.99321 36924 ft 448 kts 221°
2026-05-07 22:04 40.58915 -13.05008 36923 ft 447 kts 221°
2026-05-07 22:05 40.54439 -13.10683 36916 ft 447 kts 221°
2026-05-07 22:05 40.49974 -13.16330 36925 ft 452 kts 221°
2026-05-07 22:06 40.45423 -13.22080 36930 ft 454 kts 221°
2026-05-07 22:06 40.40871 -13.27818 36931 ft 453 kts 221°
2026-05-07 22:07 40.36328 -13.33531 36925 ft 452 kts 221°
2026-05-07 22:07 40.31797 -13.39220 36912 ft 450 kts 221°
2026-05-07 22:08 40.27268 -13.44893 36908 ft 451 kts 221°
2026-05-07 22:08 40.22722 -13.50578 36929 ft 453 kts 221°
2026-05-07 22:09 40.18134 -13.56303 36916 ft 457 kts 221°
2026-05-07 22:09 40.13534 -13.62034 36920 ft 456 kts 221°
2026-05-07 22:10 40.08938 -13.67746 36909 ft 456 kts 221°
2026-05-07 22:10 40.05121 -13.72484 36908 ft 455 kts 221°
2026-05-07 22:11 39.99788 -13.79088 36898 ft 454 kts 221°
2026-05-07 22:11 39.95206 -13.84751 36897 ft 454 kts 221°
2026-05-07 22:12 39.91348 -13.89509 36914 ft 459 kts 221°
2026-05-07 22:12 39.86692 -13.95244 36908 ft 461 kts 221°
2026-05-07 22:13 39.82033 -14.00971 36909 ft 460 kts 221°
2026-05-07 22:13 39.77418 -14.06630 36906 ft 459 kts 221°
2026-05-07 22:14 39.72778 -14.12311 36900 ft 458 kts 221°
2026-05-07 22:14 39.68143 -14.17975 36897 ft 458 kts 221°
2026-05-07 22:15 39.63488 -14.23651 36882 ft 461 kts 221°
2026-05-07 22:15 39.58786 -14.29374 36888 ft 464 kts 221°
2026-05-07 22:16 39.54075 -14.35098 36892 ft 464 kts 221°
2026-05-07 22:16 39.49369 -14.40804 36898 ft 463 kts 221°
2026-05-07 22:17 39.44696 -14.46458 36883 ft 463 kts 221°
2026-05-07 22:17 39.39991 -14.52140 36878 ft 462 kts 221°
2026-05-07 22:18 39.32934 -14.60642 36881 ft 464 kts 222°
2026-05-07 22:19 39.28195 -14.66338 36870 ft 465 kts 222°
2026-05-07 22:19 39.23461 -14.72017 36871 ft 464 kts 222°
2026-05-07 22:20 39.18734 -14.77676 36867 ft 464 kts 222°
2026-05-07 22:20 39.14007 -14.83325 36860 ft 463 kts 222°
2026-05-07 22:21 39.09284 -14.88958 36862 ft 463 kts 222°
2026-05-07 22:21 39.04562 -14.94578 36869 ft 462 kts 222°
2026-05-07 22:22 38.99909 -15.00328 36895 ft 465 kts 230°
2026-05-07 22:22 38.96101 -15.07005 36860 ft 467 kts 233°
2026-05-07 22:23 38.92302 -15.13833 36863 ft 466 kts 233°
2026-05-07 22:23 38.88546 -15.20552 36868 ft 466 kts 233°
2026-05-07 22:24 38.84766 -15.27310 36865 ft 466 kts 233°
2026-05-07 22:24 38.80981 -15.34057 36857 ft 466 kts 233°
2026-05-07 22:25 38.77193 -15.40797 36844 ft 466 kts 233°
2026-05-07 22:25 38.73414 -15.47509 36843 ft 464 kts 233°
2026-05-07 22:26 38.69634 -15.54208 36833 ft 465 kts 233°
2026-05-07 22:26 38.65840 -15.60917 36842 ft 466 kts 233°
2026-05-07 22:27 38.62032 -15.67637 36840 ft 468 kts 233°
2026-05-07 22:27 38.58235 -15.74324 36848 ft 468 kts 233°
2026-05-07 22:28 38.54404 -15.81057 36832 ft 468 kts 233°
2026-05-07 22:28 38.50573 -15.87776 36830 ft 468 kts 233°
2026-05-07 22:29 38.46743 -15.94478 36807 ft 466 kts 234°
2026-05-07 22:29 38.42928 -16.01142 36824 ft 465 kts 234°
2026-05-07 22:30 38.39107 -16.07804 36815 ft 466 kts 234°
2026-05-07 22:30 38.35278 -16.14464 36815 ft 466 kts 234°
2026-05-07 22:31 38.31468 -16.21078 36804 ft 466 kts 234°
2026-05-07 22:31 38.27623 -16.27740 36805 ft 467 kts 234°
2026-05-07 22:32 38.23772 -16.34398 36803 ft 467 kts 234°
2026-05-07 22:32 38.19911 -16.41060 36799 ft 469 kts 234°
2026-05-07 22:33 38.16043 -16.47720 36788 ft 467 kts 234°
2026-05-07 22:33 38.12185 -16.54350 36779 ft 466 kts 234°
2026-05-07 22:34 38.08338 -16.60948 36775 ft 465 kts 234°
2026-05-07 22:34 38.04483 -16.67546 36765 ft 466 kts 234°
2026-05-07 22:35 38.00614 -16.74154 36774 ft 466 kts 234°
2026-05-07 22:35 37.96750 -16.80741 36765 ft 465 kts 234°
2026-05-07 22:36 37.92889 -16.87310 36777 ft 465 kts 234°
2026-05-07 22:36 37.89049 -16.93829 36764 ft 464 kts 234°
2026-05-07 22:37 37.85190 -17.00368 36757 ft 462 kts 235°
2026-05-07 22:37 37.81339 -17.06881 36753 ft 461 kts 235°
2026-05-07 22:38 37.77509 -17.13345 36755 ft 458 kts 235°
2026-05-07 22:38 37.73677 -17.19801 36739 ft 460 kts 235°
2026-05-07 22:39 37.69826 -17.26275 36748 ft 461 kts 235°
2026-05-07 22:39 37.65962 -17.32759 36742 ft 462 kts 234°
2026-05-07 22:40 37.62100 -17.39227 36732 ft 461 kts 234°
2026-05-07 22:40 37.58250 -17.45662 36738 ft 458 kts 234°
2026-05-07 22:41 37.54443 -17.52013 36708 ft 457 kts 234°
2026-05-07 22:41 37.50605 -17.58403 36708 ft 458 kts 234°
2026-05-07 22:42 37.46757 -17.64796 36712 ft 458 kts 234°
2026-05-07 22:42 37.42904 -17.71187 36725 ft 459 kts 234°
2026-05-07 22:43 37.39039 -17.77585 36705 ft 461 kts 234°
2026-05-07 22:43 37.35149 -17.84013 36706 ft 462 kts 234°
2026-05-07 22:44 37.31256 -17.90432 36704 ft 461 kts 234°
2026-05-07 22:44 37.27372 -17.96825 36702 ft 460 kts 234°
2026-05-07 22:45 37.23521 -18.03151 36711 ft 458 kts 234°
2026-05-07 22:45 37.19656 -18.09489 36715 ft 458 kts 235°
2026-05-07 22:46 37.15789 -18.15816 36716 ft 456 kts 235°
2026-05-07 22:46 37.11925 -18.22129 36716 ft 457 kts 234°
2026-05-07 22:47 37.08049 -18.28448 36716 ft 458 kts 234°
2026-05-07 22:47 37.04164 -18.34770 36720 ft 458 kts 234°
2026-05-07 22:48 37.00268 -18.41097 36728 ft 459 kts 234°
2026-05-07 22:48 36.96363 -18.47429 36719 ft 460 kts 234°
2026-05-07 22:49 36.92478 -18.53714 36730 ft 460 kts 234°
2026-05-07 22:49 36.88570 -18.60027 36722 ft 459 kts 234°
2026-05-07 22:50 36.84664 -18.66323 36723 ft 458 kts 234°
2026-05-07 22:50 36.80755 -18.72611 36725 ft 459 kts 234°
2026-05-07 22:51 36.76842 -18.78896 36732 ft 459 kts 234°
2026-05-07 22:51 36.72921 -18.85182 36735 ft 459 kts 234°
2026-05-07 22:52 36.68994 -18.91465 36755 ft 459 kts 234°
2026-05-07 22:52 36.65062 -18.97745 36754 ft 460 kts 234°
2026-05-07 22:53 36.61141 -19.03993 36748 ft 456 kts 234°
2026-05-07 22:53 36.57268 -19.10158 36748 ft 455 kts 234°
2026-05-07 22:54 36.53362 -19.16361 36760 ft 456 kts 235°
2026-05-07 22:54 36.49438 -19.22583 36770 ft 458 kts 235°
2026-05-07 22:55 36.45497 -19.28819 36773 ft 459 kts 235°
2026-05-07 22:55 36.41560 -19.35037 36775 ft 457 kts 234°
2026-05-07 22:56 36.37630 -19.41234 36779 ft 456 kts 234°
2026-05-07 22:56 36.33700 -19.47417 36775 ft 455 kts 235°
2026-05-07 22:57 36.29777 -19.53581 36779 ft 455 kts 235°
2026-05-07 22:57 36.25847 -19.59744 36784 ft 455 kts 235°
2026-05-07 22:58 36.21942 -19.65856 36785 ft 456 kts 235°
2026-05-07 22:58 36.18002 -19.72013 36793 ft 456 kts 235°
2026-05-07 22:59 36.14057 -19.78166 36796 ft 456 kts 235°
2026-05-07 22:59 36.10109 -19.84311 36805 ft 456 kts 236°
2026-05-07 23:00 36.06163 -19.90443 36798 ft 455 kts 236°
2026-05-07 23:00 36.02215 -19.96568 36812 ft 456 kts 235°
2026-05-07 23:01 35.98439 -20.02812 36815 ft 451 kts 239°
2026-05-07 23:01 35.94868 -20.09170 36814 ft 450 kts 239°
2026-05-07 23:02 35.91308 -20.15527 36808 ft 449 kts 239°
2026-05-07 23:02 35.87756 -20.21852 36808 ft 449 kts 239°
2026-05-07 23:03 35.84198 -20.28177 36812 ft 449 kts 239°
2026-05-07 23:03 35.80656 -20.34463 36820 ft 450 kts 239°
2026-05-07 23:04 35.77081 -20.40793 36819 ft 451 kts 239°
2026-05-07 23:04 35.73496 -20.47132 36822 ft 451 kts 239°
2026-05-07 23:05 35.69894 -20.53489 36832 ft 454 kts 239°
2026-05-07 23:05 35.66279 -20.59855 36788 ft 453 kts 240°
2026-05-07 23:06 35.62684 -20.66176 36827 ft 450 kts 240°
2026-05-07 23:06 35.59094 -20.72479 36828 ft 450 kts 240°
2026-05-07 23:07 35.55521 -20.78737 36833 ft 451 kts 240°
2026-05-07 23:07 35.51918 -20.85037 36827 ft 451 kts 240°
2026-05-07 23:08 35.48305 -20.91345 36834 ft 452 kts 240°
2026-05-07 23:08 35.44676 -20.97667 36841 ft 453 kts 240°
2026-05-07 23:09 35.41039 -21.03994 36854 ft 454 kts 240°
2026-05-07 23:09 35.37398 -21.10313 36854 ft 453 kts 240°
2026-05-07 23:10 35.33769 -21.16602 36852 ft 451 kts 240°
2026-05-07 23:10 35.30154 -21.22856 36856 ft 448 kts 240°
2026-05-07 23:11 35.26572 -21.29042 36855 ft 448 kts 240°
2026-05-07 23:11 35.22959 -21.35271 36852 ft 449 kts 240°
2026-05-07 23:12 35.19335 -21.41506 36866 ft 450 kts 240°
2026-05-07 23:12 35.15699 -21.47751 36850 ft 451 kts 240°
2026-05-07 23:13 35.12672 -21.52942 36866 ft 452 kts 240°
2026-05-07 23:13 35.09021 -21.59192 36868 ft 452 kts 240°
2026-05-07 23:14 35.05376 -21.65421 36862 ft 450 kts 240°
2026-05-07 23:14 35.01738 -21.71629 36880 ft 449 kts 240°
2026-05-07 23:15 34.98106 -21.77813 36877 ft 448 kts 240°
2026-05-07 23:15 34.94485 -21.83966 36892 ft 445 kts 241°
2026-05-07 23:16 34.90866 -21.90116 36896 ft 448 kts 241°
2026-05-07 23:16 34.87245 -21.96245 36898 ft 448 kts 241°
2026-05-07 23:17 34.83599 -22.02413 36897 ft 449 kts 241°
2026-05-07 23:17 34.79950 -22.08573 36903 ft 449 kts 241°
2026-05-07 23:18 34.76297 -22.14729 36901 ft 449 kts 241°
2026-05-07 23:18 34.72642 -22.20878 36913 ft 449 kts 241°
2026-05-07 23:19 34.68985 -22.27022 36909 ft 449 kts 241°
2026-05-07 23:19 34.65323 -22.33161 36899 ft 448 kts 241°
2026-05-07 23:20 34.61665 -22.39283 36872 ft 447 kts 241°
2026-05-07 23:20 34.58038 -22.45341 36902 ft 442 kts 242°
2026-05-07 23:21 34.54452 -22.51327 36912 ft 442 kts 242°
2026-05-07 23:21 34.50831 -22.57357 36914 ft 443 kts 242°
2026-05-07 23:22 34.47196 -22.63400 36927 ft 444 kts 242°
2026-05-07 23:22 34.43545 -22.69459 36926 ft 445 kts 242°
2026-05-07 23:23 34.39897 -22.75501 36935 ft 444 kts 242°
2026-05-07 23:23 34.36260 -22.81516 36925 ft 442 kts 242°
2026-05-07 23:24 34.32634 -22.87507 36930 ft 441 kts 242°
2026-05-07 23:24 34.29005 -22.93490 36929 ft 441 kts 242°
2026-05-07 23:25 34.25375 -22.99462 36950 ft 438 kts 242°
2026-05-07 23:25 34.21796 -23.05345 36928 ft 437 kts 243°
2026-05-07 23:26 34.18181 -23.11275 36914 ft 439 kts 243°
2026-05-07 23:26 34.14579 -23.17171 36948 ft 436 kts 243°
2026-05-07 23:27 34.09184 -23.25990 36951 ft 435 kts 243°
2026-05-07 23:27 34.05586 -23.31860 36951 ft 435 kts 243°
2026-05-07 23:28 34.01984 -23.37726 36962 ft 435 kts 243°
2026-05-07 23:28 33.98375 -23.43591 36946 ft 435 kts 243°
2026-05-07 23:29 33.94776 -23.49434 36961 ft 434 kts 243°
2026-05-07 23:29 33.91177 -23.55268 36961 ft 434 kts 243°
2026-05-07 23:30 33.87588 -23.61068 36964 ft 430 kts 244°
2026-05-07 23:30 33.84013 -23.66851 36976 ft 431 kts 244°
2026-05-07 23:31 33.80442 -23.72607 36973 ft 433 kts 244°
2026-05-07 23:31 33.76842 -23.78403 36974 ft 432 kts 244°
2026-05-07 23:32 33.73241 -23.84195 36975 ft 433 kts 244°
2026-05-07 23:32 33.69632 -23.89987 36984 ft 434 kts 244°
2026-05-07 23:33 33.66011 -23.95791 36989 ft 434 kts 244°
2026-05-07 23:33 33.62399 -24.01567 36991 ft 432 kts 244°
2026-05-07 23:34 33.58803 -24.07313 36948 ft 430 kts 245°
2026-05-07 23:34 33.55213 -24.13043 36997 ft 431 kts 244°
2026-05-07 23:35 33.51597 -24.18799 37003 ft 433 kts 244°
2026-05-07 23:35 33.48000 -24.24518 37005 ft 433 kts 244°
2026-05-07 23:36 33.44374 -24.30273 37011 ft 433 kts 244°
2026-05-07 23:36 33.40746 -24.36024 37011 ft 433 kts 244°
2026-05-07 23:37 33.37116 -24.41766 37001 ft 432 kts 245°
2026-05-07 23:37 33.33488 -24.47503 37002 ft 433 kts 245°
2026-05-07 23:38 33.29851 -24.53240 37010 ft 433 kts 245°
2026-05-07 23:38 33.26209 -24.58977 37013 ft 434 kts 245°
2026-05-07 23:39 33.22584 -24.64677 37018 ft 434 kts 244°
2026-05-07 23:39 33.18923 -24.70426 36967 ft 435 kts 245°
2026-05-07 23:40 33.15293 -24.76111 37008 ft 429 kts 245°
2026-05-07 23:40 33.11675 -24.81786 37016 ft 430 kts 244°
2026-05-07 23:41 33.08045 -24.87454 37017 ft 430 kts 244°
2026-05-07 23:41 33.04409 -24.93131 37021 ft 431 kts 244°
2026-05-07 23:42 33.00765 -24.98808 37033 ft 431 kts 244°
2026-05-07 23:42 32.97434 -25.04591 37044 ft 425 kts 247°
2026-05-07 23:43 32.94122 -25.10438 37038 ft 426 kts 248°
2026-05-07 23:43 32.90829 -25.16299 37040 ft 426 kts 248°
2026-05-07 23:44 32.87519 -25.22155 37047 ft 427 kts 247°
2026-05-07 23:44 32.84206 -25.28018 37051 ft 427 kts 247°
2026-05-07 23:45 32.80891 -25.33871 36975 ft 426 kts 247°
2026-05-07 23:45 32.77587 -25.39696 37041 ft 425 kts 247°
2026-05-07 23:46 32.74274 -25.45532 37046 ft 426 kts 246°
2026-05-07 23:46 32.70949 -25.51373 37049 ft 427 kts 246°
2026-05-07 23:47 32.67645 -25.57170 37051 ft 426 kts 246°
2026-05-07 23:47 32.64330 -25.62979 37047 ft 424 kts 246°
2026-05-07 23:48 32.61024 -25.68767 37054 ft 425 kts 246°
2026-05-07 23:48 32.57698 -25.74575 37060 ft 426 kts 246°
2026-05-07 23:49 32.54368 -25.80384 37075 ft 426 kts 246°
2026-05-07 23:49 32.51030 -25.86196 37075 ft 427 kts 246°
2026-05-07 23:50 32.47689 -25.92005 37076 ft 426 kts 246°
2026-05-07 23:50 32.44349 -25.97805 37060 ft 426 kts 246°
2026-05-07 23:51 32.41002 -26.03606 37058 ft 427 kts 245°
2026-05-07 23:51 32.37644 -26.09421 37074 ft 429 kts 245°
2026-05-07 23:52 32.34271 -26.15245 37080 ft 429 kts 245°
2026-05-07 23:52 32.30925 -26.21020 37078 ft 428 kts 245°
2026-05-07 23:53 32.27556 -26.26825 37057 ft 428 kts 245°
2026-05-07 23:53 32.24177 -26.32641 37087 ft 431 kts 245°
2026-05-07 23:54 32.20778 -26.38473 37091 ft 431 kts 245°
2026-05-07 23:54 32.17383 -26.44298 37090 ft 430 kts 245°
2026-05-07 23:55 32.13986 -26.50114 37087 ft 430 kts 245°
2026-05-07 23:55 32.10589 -26.55922 37089 ft 430 kts 245°
2026-05-07 23:56 32.07183 -26.61739 37090 ft 432 kts 245°
2026-05-07 23:56 32.03761 -26.67568 37100 ft 432 kts 245°
2026-05-07 23:57 32.00338 -26.73395 37097 ft 432 kts 244°
2026-05-07 23:57 31.96927 -26.79191 37097 ft 433 kts 244°
2026-05-07 23:58 31.93492 -26.85017 37099 ft 433 kts 244°
2026-05-07 23:58 31.90062 -26.90832 37110 ft 434 kts 244°
2026-05-07 23:59 31.86609 -26.96671 37110 ft 435 kts 244°
2026-05-07 23:59 31.83157 -27.02501 37115 ft 434 kts 244°
2026-05-08 00:00 31.79702 -27.08328 37115 ft 434 kts 244°
2026-05-08 00:00 31.76242 -27.14154 37122 ft 434 kts 244°
2026-05-08 00:01 31.72781 -27.19974 37114 ft 435 kts 244°
2026-05-08 00:01 31.69304 -27.25812 37122 ft 437 kts 244°
2026-05-08 00:02 31.65843 -27.31612 37122 ft 436 kts 244°
2026-05-08 00:02 31.62360 -27.37443 37125 ft 436 kts 244°
2026-05-08 00:03 31.58868 -27.43280 37129 ft 439 kts 244°
2026-05-08 00:03 31.55352 -27.49143 37143 ft 439 kts 244°
2026-05-08 00:04 31.51832 -27.55012 37122 ft 440 kts 244°
2026-05-08 00:04 31.48302 -27.60882 37127 ft 440 kts 244°
2026-05-08 00:05 31.44776 -27.66741 37127 ft 440 kts 244°
2026-05-08 00:05 31.41248 -27.72590 37131 ft 440 kts 244°
2026-05-08 00:06 31.37745 -27.78393 37123 ft 439 kts 244°
2026-05-08 00:06 31.34205 -27.84249 37140 ft 442 kts 244°
2026-05-08 00:07 31.30645 -27.90123 37144 ft 442 kts 244°
2026-05-08 00:07 31.27086 -27.95993 37146 ft 442 kts 244°
2026-05-08 00:08 31.23526 -28.01853 37143 ft 442 kts 244°
2026-05-08 00:08 31.19968 -28.07701 37142 ft 441 kts 244°
2026-05-08 00:09 31.16413 -28.13538 37145 ft 441 kts 244°
2026-05-08 00:09 31.12847 -28.19380 37150 ft 442 kts 244°
2026-05-08 00:10 31.09276 -28.25225 37148 ft 442 kts 244°
2026-05-08 00:10 31.05722 -28.31030 37152 ft 443 kts 244°
2026-05-08 00:11 31.02140 -28.36874 37154 ft 443 kts 244°
2026-05-08 00:11 30.98559 -28.42709 37154 ft 442 kts 244°
2026-05-08 00:12 30.94978 -28.48535 37161 ft 442 kts 244°
2026-05-08 00:12 30.91998 -28.53375 37161 ft 442 kts 244°
2026-05-08 00:13 30.88416 -28.59186 37165 ft 442 kts 243°
2026-05-08 00:13 30.84828 -28.64999 37168 ft 442 kts 243°
2026-05-08 00:14 30.81244 -28.70795 37154 ft 441 kts 244°
2026-05-08 00:14 30.77666 -28.76577 37165 ft 441 kts 244°
2026-05-08 00:15 30.74066 -28.82384 37173 ft 444 kts 244°
2026-05-08 00:15 30.70454 -28.88197 37175 ft 443 kts 244°
2026-05-08 00:16 30.66851 -28.93992 37179 ft 441 kts 244°
2026-05-08 00:16 30.63284 -28.99720 37175 ft 441 kts 244°
2026-05-08 00:17 30.59681 -29.05501 37183 ft 443 kts 244°
2026-05-08 00:17 30.56057 -29.11299 37187 ft 443 kts 244°
2026-05-08 00:18 30.52441 -29.17081 37186 ft 442 kts 244°
2026-05-08 00:18 30.48830 -29.22845 37183 ft 441 kts 244°
2026-05-08 00:19 30.45226 -29.28592 37184 ft 441 kts 244°
2026-05-08 00:19 30.41627 -29.34323 37186 ft 444 kts 243°
2026-05-08 00:20 30.37985 -29.40109 37182 ft 445 kts 243°
2026-05-08 00:20 30.34336 -29.45904 37189 ft 445 kts 243°
2026-05-08 00:21 30.30687 -29.51684 37185 ft 444 kts 243°
2026-05-08 00:21 30.27045 -29.57451 37197 ft 444 kts 243°
2026-05-08 00:22 30.23388 -29.63231 37201 ft 445 kts 243°
2026-05-08 00:22 30.19722 -29.69016 37202 ft 446 kts 243°
2026-05-08 00:23 30.16053 -29.74797 37203 ft 446 kts 243°
2026-05-08 00:23 30.12385 -29.80570 37203 ft 445 kts 243°
2026-05-08 00:24 30.08742 -29.86295 37193 ft 446 kts 243°
2026-05-08 00:24 30.05062 -29.92070 37194 ft 447 kts 243°
2026-05-08 00:25 30.01368 -29.97856 37199 ft 447 kts 243°
2026-05-08 00:25 29.97711 -30.03637 37196 ft 445 kts 243°
2026-05-08 00:26 29.94113 -30.09469 37196 ft 447 kts 243°
2026-05-08 00:26 29.90467 -30.15275 37196 ft 447 kts 243°
2026-05-08 00:27 29.86867 -30.21051 37196 ft 447 kts 243°
2026-05-08 00:27 29.83228 -30.26854 37196 ft 447 kts 243°
2026-05-08 00:28 29.79595 -30.32653 37199 ft 447 kts 243°
2026-05-08 00:28 29.75956 -30.38447 37199 ft 446 kts 243°
2026-05-08 00:29 29.72322 -30.44227 37200 ft 445 kts 243°
2026-05-08 00:29 29.68690 -30.49995 37197 ft 445 kts 243°
2026-05-08 00:30 29.65064 -30.55745 37198 ft 444 kts 243°
2026-05-08 00:30 29.61426 -30.61509 37201 ft 446 kts 242°
2026-05-08 00:31 29.57771 -30.67288 37209 ft 448 kts 242°
2026-05-08 00:31 29.54111 -30.73068 37213 ft 446 kts 242°
2026-05-08 00:32 29.50490 -30.78777 37206 ft 444 kts 242°
2026-05-08 00:32 29.46855 -30.84504 37206 ft 444 kts 242°
2026-05-08 00:33 29.43211 -30.90236 37204 ft 445 kts 242°
2026-05-08 00:33 29.39556 -30.95974 37212 ft 446 kts 242°
2026-05-08 00:34 29.35902 -31.01703 37205 ft 444 kts 242°
2026-05-08 00:34 29.32261 -31.07409 37201 ft 443 kts 242°
2026-05-08 00:35 29.28620 -31.13102 37205 ft 443 kts 242°
2026-05-08 00:35 29.24979 -31.18788 37202 ft 443 kts 242°
2026-05-08 00:36 29.21335 -31.24472 37204 ft 443 kts 242°
2026-05-08 00:36 29.17714 -31.30112 37207 ft 443 kts 242°
2026-05-08 00:37 29.14065 -31.35787 37206 ft 443 kts 242°
2026-05-08 00:38 29.08569 -31.44323 37214 ft 446 kts 242°
2026-05-08 00:38 29.04893 -31.50019 37215 ft 444 kts 242°
2026-05-08 00:39 29.01229 -31.55692 37206 ft 443 kts 242°
2026-05-08 00:39 28.97571 -31.61347 37201 ft 442 kts 242°
2026-05-08 00:40 28.93914 -31.66994 37203 ft 443 kts 242°
2026-05-08 00:40 28.90265 -31.72620 37207 ft 445 kts 242°
2026-05-08 00:41 28.86576 -31.78300 37216 ft 446 kts 242°
2026-05-08 00:41 28.82884 -31.83976 37212 ft 445 kts 241°
2026-05-08 00:42 28.79189 -31.89649 37211 ft 445 kts 241°
2026-05-08 00:42 28.75493 -31.95317 37216 ft 446 kts 241°
2026-05-08 00:43 28.71790 -32.00990 37208 ft 447 kts 241°
2026-05-08 00:43 28.68072 -32.06672 37210 ft 447 kts 241°
2026-05-08 00:44 28.64357 -32.12347 37207 ft 447 kts 241°
2026-05-08 00:44 28.60640 -32.18017 37209 ft 447 kts 241°
2026-05-08 00:45 28.56946 -32.23643 37211 ft 446 kts 241°
2026-05-08 00:45 28.53231 -32.29295 37211 ft 446 kts 241°
2026-05-08 00:46 28.49512 -32.34944 37192 ft 446 kts 240°
2026-05-08 00:46 28.45786 -32.40597 37227 ft 448 kts 240°
2026-05-08 00:47 28.42048 -32.46260 37230 ft 448 kts 240°
2026-05-08 00:47 28.38305 -32.51923 37232 ft 448 kts 240°
2026-05-08 00:48 28.34560 -32.57582 37229 ft 448 kts 240°
2026-05-08 00:48 28.30810 -32.63242 37211 ft 449 kts 240°
2026-05-08 00:49 28.27077 -32.68867 37219 ft 450 kts 240°
2026-05-08 00:49 28.23312 -32.74533 37220 ft 450 kts 240°
2026-05-08 00:50 28.19543 -32.80197 37222 ft 450 kts 240°
2026-05-08 00:50 28.15775 -32.85853 37223 ft 449 kts 240°
2026-05-08 00:51 28.12008 -32.91501 37224 ft 449 kts 239°
2026-05-08 00:51 28.08238 -32.97144 37222 ft 449 kts 239°
2026-05-08 00:52 28.04467 -33.02782 37222 ft 449 kts 239°
2026-05-08 00:52 28.00720 -33.08377 37223 ft 449 kts 239°
2026-05-08 00:53 27.96945 -33.14008 37223 ft 449 kts 239°
2026-05-08 00:53 27.93168 -33.19632 37216 ft 448 kts 239°
2026-05-08 00:54 27.89394 -33.25247 37227 ft 450 kts 239°
2026-05-08 00:54 27.85594 -33.30891 37236 ft 452 kts 239°
2026-05-08 00:55 27.81787 -33.36538 37229 ft 452 kts 239°
2026-05-08 00:55 27.77978 -33.42181 37229 ft 451 kts 239°
2026-05-08 00:56 27.74174 -33.47808 37227 ft 450 kts 238°
2026-05-08 00:56 27.70374 -33.53424 37224 ft 450 kts 238°
2026-05-08 00:57 27.66579 -33.59025 37222 ft 449 kts 238°
2026-05-08 00:57 27.62787 -33.64614 37222 ft 449 kts 238°
2026-05-08 00:58 27.59010 -33.70176 37209 ft 450 kts 238°
2026-05-08 00:58 27.55191 -33.75789 37224 ft 452 kts 238°
2026-05-08 00:59 27.51361 -33.81413 37229 ft 453 kts 238°
2026-05-08 00:59 27.47528 -33.87032 37219 ft 452 kts 238°
2026-05-08 01:00 27.43686 -33.92660 37223 ft 454 kts 238°
2026-05-08 01:00 27.39845 -33.98276 37222 ft 452 kts 238°
2026-05-08 01:01 27.36016 -34.03870 37218 ft 450 kts 238°
2026-05-08 01:01 27.32193 -34.09446 37215 ft 450 kts 238°
2026-05-08 01:02 27.28365 -34.15026 37216 ft 451 kts 238°
2026-05-08 01:02 27.24550 -34.20576 37219 ft 452 kts 238°
2026-05-08 01:03 27.20700 -34.26172 37220 ft 453 kts 238°
2026-05-08 01:03 27.16836 -34.31779 37224 ft 454 kts 238°
2026-05-08 01:04 27.12979 -34.37371 37222 ft 452 kts 238°
2026-05-08 01:04 27.09133 -34.42939 37218 ft 451 kts 238°
2026-05-08 01:05 27.05314 -34.48463 37210 ft 453 kts 237°
2026-05-08 01:05 27.01441 -34.54055 37216 ft 454 kts 237°
2026-05-08 01:06 26.97558 -34.59655 37218 ft 455 kts 237°
2026-05-08 01:06 26.93673 -34.65253 37222 ft 455 kts 237°
2026-05-08 01:07 26.89785 -34.70846 37222 ft 455 kts 237°
2026-05-08 01:07 26.85899 -34.76431 37209 ft 455 kts 237°
2026-05-08 01:08 26.82009 -34.82013 37213 ft 454 kts 237°
2026-05-08 01:08 26.78118 -34.87590 37210 ft 454 kts 237°
2026-05-08 01:09 26.74227 -34.93160 37210 ft 454 kts 237°
2026-05-08 01:09 26.70334 -34.98727 37210 ft 454 kts 237°
2026-05-08 01:10 26.66438 -35.04290 37212 ft 455 kts 237°
2026-05-08 01:10 26.62524 -35.09873 37218 ft 457 kts 236°
2026-05-08 01:11 26.58603 -35.15457 37209 ft 456 kts 236°
2026-05-08 01:11 26.54718 -35.20986 37209 ft 455 kts 236°
2026-05-08 01:12 26.50815 -35.26531 37206 ft 453 kts 236°
2026-05-08 01:12 26.46910 -35.32074 37202 ft 455 kts 236°
2026-05-08 01:13 26.42983 -35.37641 37210 ft 457 kts 236°
2026-05-08 01:13 26.39046 -35.43213 37212 ft 457 kts 236°
2026-05-08 01:14 26.35111 -35.48778 37212 ft 456 kts 236°
2026-05-08 01:14 26.31843 -35.53394 37201 ft 456 kts 236°
2026-05-08 01:15 26.27915 -35.58935 37199 ft 455 kts 236°
2026-05-08 01:15 26.23353 -35.65363 37201 ft 455 kts 236°
2026-05-08 01:16 26.20075 -35.69977 37202 ft 458 kts 236°
2026-05-08 01:16 26.16121 -35.75533 37193 ft 458 kts 236°
2026-05-08 01:17 26.12166 -35.81087 37197 ft 458 kts 236°
2026-05-08 01:17 26.08206 -35.86641 37198 ft 458 kts 236°
2026-05-08 01:18 26.04245 -35.92188 37196 ft 458 kts 236°
2026-05-08 01:18 26.00282 -35.97732 37194 ft 458 kts 236°
2026-05-08 01:19 25.96316 -36.03273 37192 ft 458 kts 235°
2026-05-08 01:19 25.92348 -36.08810 37192 ft 458 kts 235°
2026-05-08 01:20 25.88384 -36.14336 37187 ft 457 kts 235°
2026-05-08 01:20 25.84442 -36.19824 37186 ft 457 kts 235°
2026-05-08 01:21 25.80449 -36.25376 37195 ft 458 kts 235°
2026-05-08 01:21 25.76495 -36.30868 37190 ft 459 kts 235°
2026-05-08 01:22 25.72508 -36.36399 37184 ft 459 kts 235°
2026-05-08 01:22 25.68517 -36.41929 37190 ft 459 kts 235°
2026-05-08 01:23 25.64523 -36.47456 37189 ft 459 kts 235°
2026-05-08 01:23 25.60529 -36.52977 37191 ft 459 kts 235°
2026-05-08 01:24 25.56536 -36.58489 37189 ft 459 kts 235°
2026-05-08 01:24 25.52567 -36.63963 37192 ft 459 kts 235°
2026-05-08 01:25 25.48546 -36.69501 37185 ft 459 kts 234°
2026-05-08 01:25 25.44575 -36.74965 37183 ft 458 kts 234°
2026-05-08 01:26 25.40578 -36.80456 37186 ft 458 kts 234°
2026-05-08 01:26 25.36581 -36.85943 37180 ft 458 kts 234°
2026-05-08 01:27 25.32584 -36.91422 37171 ft 458 kts 234°
2026-05-08 01:27 25.28583 -36.96900 37178 ft 458 kts 234°
2026-05-08 01:28 25.24585 -37.02368 37177 ft 457 kts 234°
2026-05-08 01:28 25.20589 -37.07828 37176 ft 457 kts 234°
2026-05-08 01:29 25.16594 -37.13279 37180 ft 456 kts 234°
2026-05-08 01:29 25.12626 -37.18687 37178 ft 456 kts 234°
2026-05-08 01:30 25.08603 -37.24166 37178 ft 457 kts 234°
2026-05-08 01:30 25.04620 -37.29581 37180 ft 458 kts 234°
2026-05-08 01:31 25.00606 -37.35033 37180 ft 458 kts 234°
2026-05-08 01:31 24.96581 -37.40495 37172 ft 460 kts 234°
2026-05-08 01:32 24.92541 -37.45968 37174 ft 461 kts 234°
2026-05-08 01:32 24.88498 -37.51442 37171 ft 460 kts 233°
2026-05-08 01:33 24.84463 -37.56897 37169 ft 458 kts 233°
2026-05-08 01:33 24.80441 -37.62329 37168 ft 457 kts 233°
2026-05-08 01:34 24.76414 -37.67762 37169 ft 459 kts 233°
2026-05-08 01:34 24.72375 -37.73203 37171 ft 460 kts 233°
2026-05-08 01:35 24.68330 -37.78647 37174 ft 460 kts 233°
2026-05-08 01:35 24.64286 -37.84085 37175 ft 460 kts 233°
2026-05-08 01:36 24.60236 -37.89523 37176 ft 460 kts 233°
2026-05-08 01:36 24.56184 -37.94959 37167 ft 461 kts 233°
2026-05-08 01:37 24.52117 -38.00407 37169 ft 462 kts 233°
2026-05-08 01:37 24.48080 -38.05811 37166 ft 460 kts 233°
2026-05-08 01:38 24.44022 -38.11236 37162 ft 459 kts 233°
2026-05-08 01:38 24.39971 -38.16646 37162 ft 458 kts 233°
2026-05-08 01:39 24.35926 -38.22040 37165 ft 458 kts 233°
2026-05-08 01:39 24.31867 -38.27448 37165 ft 460 kts 233°
2026-05-08 01:40 24.27792 -38.32873 37166 ft 462 kts 233°
2026-05-08 01:40 24.23712 -38.38296 37162 ft 460 kts 233°
2026-05-08 01:41 24.19643 -38.43700 37162 ft 459 kts 232°
2026-05-08 01:41 24.15581 -38.49088 37158 ft 460 kts 232°
2026-05-08 01:42 24.11494 -38.54504 37158 ft 462 kts 232°
2026-05-08 01:42 24.07396 -38.59927 37162 ft 462 kts 232°
2026-05-08 01:43 24.03297 -38.65346 37169 ft 462 kts 232°
2026-05-08 01:43 23.99224 -38.70725 37155 ft 462 kts 232°
2026-05-08 01:44 23.95127 -38.76130 37164 ft 461 kts 232°
2026-05-08 01:44 23.91028 -38.81531 37158 ft 461 kts 232°
2026-05-08 01:45 23.86933 -38.86922 37154 ft 461 kts 232°
2026-05-08 01:45 23.82839 -38.92305 37156 ft 461 kts 232°
2026-05-08 01:46 23.78745 -38.97682 37156 ft 460 kts 232°
2026-05-08 01:46 23.74646 -39.03060 37153 ft 461 kts 232°
2026-05-08 01:47 23.70530 -39.08455 37152 ft 463 kts 232°
2026-05-08 01:47 23.66403 -39.13857 37144 ft 464 kts 232°
2026-05-08 01:48 23.60204 -39.21961 37147 ft 464 kts 232°
2026-05-08 01:48 23.56072 -39.27356 37145 ft 463 kts 232°
2026-05-08 01:49 23.51970 -39.32706 37150 ft 463 kts 232°
2026-05-08 01:49 23.47843 -39.38083 37144 ft 463 kts 232°
2026-05-08 01:50 23.43714 -39.43457 37137 ft 462 kts 232°
2026-05-08 01:50 23.39586 -39.48823 37137 ft 462 kts 232°
2026-05-08 01:51 23.35464 -39.54176 37138 ft 461 kts 231°
2026-05-08 01:51 23.31323 -39.59548 37150 ft 465 kts 231°
2026-05-08 01:52 23.27165 -39.64936 37153 ft 465 kts 231°
2026-05-08 01:52 23.22999 -39.70329 37153 ft 465 kts 231°
2026-05-08 01:53 23.18865 -39.75676 37149 ft 465 kts 231°
2026-05-08 01:53 23.14703 -39.81052 37145 ft 465 kts 231°
2026-05-08 01:54 23.10539 -39.86425 37142 ft 465 kts 231°
2026-05-08 01:54 23.06374 -39.91794 37142 ft 465 kts 231°
2026-05-08 01:55 23.02203 -39.97164 37144 ft 465 kts 231°
2026-05-08 01:55 22.97888 -40.02391 37141 ft 466 kts 227°
2026-05-08 01:56 22.93403 -40.07465 37135 ft 466 kts 227°
2026-05-08 01:56 22.88902 -40.12555 37137 ft 468 kts 227°
2026-05-08 01:57 22.84402 -40.17635 37133 ft 466 kts 227°
2026-05-08 01:57 22.79915 -40.22699 37131 ft 465 kts 227°
2026-05-08 01:58 22.75434 -40.27749 37130 ft 464 kts 227°
2026-05-08 01:58 22.70983 -40.32761 37123 ft 465 kts 227°
2026-05-08 01:59 22.66490 -40.37814 37126 ft 466 kts 227°
2026-05-08 01:59 22.61987 -40.42873 37128 ft 467 kts 227°
2026-05-08 02:00 22.57481 -40.47931 37120 ft 466 kts 227°
2026-05-08 02:00 22.52973 -40.52987 37130 ft 468 kts 227°
2026-05-08 02:01 22.48447 -40.58057 37133 ft 469 kts 227°
2026-05-08 02:01 22.43922 -40.63120 37130 ft 467 kts 227°
2026-05-08 02:02 22.39443 -40.68129 37127 ft 466 kts 227°
2026-05-08 02:02 22.34943 -40.73154 37121 ft 465 kts 227°
2026-05-08 02:03 22.30446 -40.78173 37123 ft 465 kts 227°
2026-05-08 02:03 22.25934 -40.83202 37124 ft 467 kts 227°
2026-05-08 02:04 22.21407 -40.88244 37130 ft 468 kts 227°
2026-05-08 02:04 22.16859 -40.93303 37121 ft 470 kts 227°
2026-05-08 02:05 22.12322 -40.98345 37120 ft 467 kts 227°
2026-05-08 02:05 22.07795 -41.03372 37117 ft 467 kts 227°
2026-05-08 02:06 22.03272 -41.08389 37117 ft 466 kts 227°
2026-05-08 02:06 21.98749 -41.13401 37111 ft 466 kts 227°
2026-05-08 02:07 21.94254 -41.18377 37113 ft 467 kts 227°
2026-05-08 02:07 21.89723 -41.23388 37113 ft 467 kts 227°
2026-05-08 02:08 21.85191 -41.28396 37114 ft 467 kts 227°
2026-05-08 02:08 21.80652 -41.33406 37118 ft 468 kts 227°
2026-05-08 02:09 21.76096 -41.38431 37122 ft 470 kts 227°
2026-05-08 02:09 21.71530 -41.43460 37125 ft 470 kts 227°
2026-05-08 02:10 21.66964 -41.48486 37126 ft 469 kts 227°
2026-05-08 02:10 21.62404 -41.53501 37125 ft 469 kts 227°
2026-05-08 02:11 21.57844 -41.58509 37128 ft 468 kts 227°
2026-05-08 02:11 21.53298 -41.63498 37121 ft 466 kts 227°
2026-05-08 02:12 21.49530 -41.67630 37114 ft 466 kts 227°
2026-05-08 02:12 21.44247 -41.73418 37116 ft 468 kts 227°
2026-05-08 02:13 21.39680 -41.78415 37123 ft 470 kts 227°
2026-05-08 02:13 21.35880 -41.82571 37122 ft 469 kts 227°
2026-05-08 02:14 21.31318 -41.87555 37119 ft 468 kts 227°
2026-05-08 02:14 21.26765 -41.92524 37116 ft 466 kts 227°
2026-05-08 02:15 21.22221 -41.97479 37108 ft 466 kts 227°
2026-05-08 02:15 21.17675 -42.02431 37109 ft 466 kts 227°
2026-05-08 02:16 21.13134 -42.07373 37109 ft 465 kts 227°
2026-05-08 02:16 21.08597 -42.12307 37105 ft 465 kts 227°
2026-05-08 02:17 21.04035 -42.17263 37116 ft 468 kts 226°
2026-05-08 02:17 20.99459 -42.22230 37119 ft 468 kts 226°
2026-05-08 02:18 20.94886 -42.27188 37118 ft 468 kts 226°
2026-05-08 02:18 20.90313 -42.32142 37115 ft 468 kts 226°
2026-05-08 02:19 20.85774 -42.37055 37109 ft 467 kts 226°
2026-05-08 02:19 20.81207 -42.41993 37108 ft 467 kts 226°
2026-05-08 02:20 20.76641 -42.46927 37106 ft 466 kts 226°
2026-05-08 02:20 20.72080 -42.51850 37094 ft 466 kts 226°
2026-05-08 02:21 20.67504 -42.56786 37107 ft 469 kts 226°
2026-05-08 02:21 20.62907 -42.61738 37108 ft 470 kts 226°
2026-05-08 02:22 20.58308 -42.66688 37109 ft 469 kts 226°
2026-05-08 02:22 20.53721 -42.71621 37109 ft 468 kts 226°
2026-05-08 02:23 20.49141 -42.76543 37103 ft 467 kts 226°
2026-05-08 02:23 20.44569 -42.81451 37100 ft 466 kts 226°
2026-05-08 02:24 20.39999 -42.86353 37099 ft 466 kts 226°
2026-05-08 02:24 20.35421 -42.91259 37094 ft 468 kts 226°
2026-05-08 02:25 20.30846 -42.96157 37101 ft 470 kts 226°
2026-05-08 02:25 20.26230 -43.01094 37101 ft 470 kts 226°
2026-05-08 02:26 20.21612 -43.06030 37106 ft 470 kts 226°
2026-05-08 02:26 20.16998 -43.10957 37101 ft 470 kts 226°
2026-05-08 02:27 20.12383 -43.15881 37097 ft 470 kts 226°
2026-05-08 02:27 20.07772 -43.20796 37098 ft 469 kts 226°
2026-05-08 02:28 20.03189 -43.25676 37100 ft 469 kts 226°
2026-05-08 02:28 19.98570 -43.30591 37087 ft 469 kts 226°
2026-05-08 02:29 19.93946 -43.35506 37088 ft 471 kts 226°
2026-05-08 02:29 19.89311 -43.40429 37089 ft 471 kts 226°
2026-05-08 02:30 19.84674 -43.45350 37090 ft 471 kts 226°
2026-05-08 02:30 19.80047 -43.50256 37089 ft 470 kts 226°
2026-05-08 02:31 19.75426 -43.55152 37085 ft 469 kts 226°
2026-05-08 02:31 19.70809 -43.60038 37084 ft 468 kts 226°
2026-05-08 02:32 19.66195 -43.64918 37084 ft 469 kts 226°
2026-05-08 02:32 19.61562 -43.69814 37081 ft 471 kts 226°
2026-05-08 02:33 19.56938 -43.74696 37087 ft 472 kts 226°
2026-05-08 02:33 19.52291 -43.79598 37086 ft 471 kts 226°
2026-05-08 02:34 19.47650 -43.84488 37084 ft 470 kts 226°
2026-05-08 02:34 19.43018 -43.89366 37082 ft 469 kts 226°
2026-05-08 02:35 19.38394 -43.94231 37079 ft 468 kts 226°
2026-05-08 02:35 19.33761 -43.99102 37078 ft 470 kts 226°
2026-05-08 02:36 19.29112 -44.03984 37083 ft 471 kts 226°
2026-05-08 02:36 19.24448 -44.08879 37080 ft 473 kts 226°
2026-05-08 02:37 19.19807 -44.13746 37079 ft 472 kts 226°
2026-05-08 02:37 19.15154 -44.18621 37076 ft 470 kts 226°
2026-05-08 02:38 19.10508 -44.23484 37073 ft 470 kts 226°
2026-05-08 02:38 19.05857 -44.28349 37073 ft 470 kts 226°
2026-05-08 02:39 19.01202 -44.33213 37074 ft 470 kts 226°
2026-05-08 02:39 18.96550 -44.38071 37075 ft 470 kts 226°
2026-05-08 02:40 18.91896 -44.42926 37063 ft 470 kts 226°
2026-05-08 02:40 18.87221 -44.47800 37075 ft 473 kts 226°
2026-05-08 02:41 18.82539 -44.52676 37075 ft 473 kts 226°
2026-05-08 02:41 18.77847 -44.57560 37077 ft 474 kts 226°
2026-05-08 02:42 18.73188 -44.62403 37084 ft 473 kts 226°
2026-05-08 02:42 18.68470 -44.67305 37085 ft 472 kts 226°
2026-05-08 02:43 18.63792 -44.72163 37079 ft 471 kts 226°
2026-05-08 02:43 18.59153 -44.76974 37074 ft 471 kts 226°
2026-05-08 02:44 18.54485 -44.81813 37068 ft 472 kts 226°
2026-05-08 02:44 18.49795 -44.86670 37072 ft 473 kts 226°
2026-05-08 02:45 18.45093 -44.91535 37070 ft 474 kts 226°
2026-05-08 02:45 18.40388 -44.96400 37070 ft 474 kts 226°
2026-05-08 02:46 18.35681 -45.01263 37068 ft 474 kts 226°
2026-05-08 02:46 18.30970 -45.06126 37069 ft 474 kts 226°
2026-05-08 02:47 18.26260 -45.10985 37065 ft 475 kts 226°
2026-05-08 02:47 18.21541 -45.15848 37071 ft 475 kts 226°
2026-05-08 02:48 18.16856 -45.20672 37070 ft 474 kts 226°
2026-05-08 02:48 18.12156 -45.25508 37061 ft 472 kts 226°
2026-05-08 02:49 18.07465 -45.30332 37064 ft 472 kts 226°
2026-05-08 02:49 18.02759 -45.35167 37065 ft 474 kts 226°
2026-05-08 02:50 17.98200 -45.40157 37063 ft 473 kts 230°
2026-05-08 02:50 17.93847 -45.45343 37065 ft 473 kts 230°
2026-05-08 02:51 17.89506 -45.50525 37054 ft 473 kts 230°
2026-05-08 02:51 17.85146 -45.55721 37059 ft 474 kts 230°
2026-05-08 02:52 17.80810 -45.60884 37069 ft 474 kts 230°
2026-05-08 02:52 17.76459 -45.66063 37063 ft 472 kts 230°
2026-05-08 02:53 17.72122 -45.71219 37052 ft 471 kts 230°
2026-05-08 02:53 17.67775 -45.76384 37056 ft 474 kts 230°
2026-05-08 02:54 17.63407 -45.81570 37058 ft 473 kts 230°
2026-05-08 02:54 17.59052 -45.86736 37050 ft 472 kts 230°
2026-05-08 02:55 17.52538 -45.94456 37053 ft 472 kts 230°
2026-05-08 02:56 17.48177 -45.99618 37063 ft 473 kts 230°
2026-05-08 02:56 17.43826 -46.04765 37063 ft 472 kts 230°
2026-05-08 02:57 17.39479 -46.09904 37061 ft 471 kts 230°
2026-05-08 02:57 17.35128 -46.15043 37053 ft 471 kts 230°
2026-05-08 02:58 17.30802 -46.20149 37059 ft 472 kts 230°
2026-05-08 02:58 17.26452 -46.25279 37059 ft 470 kts 230°
2026-05-08 02:59 17.22114 -46.30391 37054 ft 470 kts 230°
2026-05-08 02:59 17.17769 -46.35506 37058 ft 471 kts 230°
2026-05-08 03:00 17.13415 -46.40630 37053 ft 472 kts 230°
2026-05-08 03:00 17.09055 -46.45756 37058 ft 472 kts 230°
2026-05-08 03:01 17.04693 -46.50880 37057 ft 472 kts 230°
2026-05-08 03:01 17.00333 -46.55998 37054 ft 472 kts 230°
2026-05-08 03:02 16.95978 -46.61106 37053 ft 470 kts 230°
2026-05-08 03:02 16.91652 -46.66178 37052 ft 471 kts 230°
2026-05-08 03:03 16.87285 -46.71293 37054 ft 472 kts 230°
2026-05-08 03:03 16.82914 -46.76408 37055 ft 472 kts 230°
2026-05-08 03:04 16.78541 -46.81522 37057 ft 472 kts 230°
2026-05-08 03:04 16.76356 -46.84075 37296 ft 469 kts 230°
2026-05-08 03:04 16.74190 -46.86606 37679 ft 467 kts 230°
2026-05-08 03:04 16.72031 -46.89129 37963 ft 466 kts 230°
2026-05-08 03:05 16.69870 -46.91651 38247 ft 466 kts 230°
2026-05-08 03:05 16.67745 -46.94132 38522 ft 465 kts 230°
2026-05-08 03:05 16.65588 -46.96648 38779 ft 465 kts 229°
2026-05-08 03:05 16.63439 -46.99154 39049 ft 463 kts 229°
2026-05-08 03:06 16.61299 -47.01649 39322 ft 461 kts 229°
2026-05-08 03:06 16.59163 -47.04138 39538 ft 460 kts 229°
2026-05-08 03:06 16.57031 -47.06623 39752 ft 459 kts 229°
2026-05-08 03:06 16.54899 -47.09105 39924 ft 460 kts 229°
2026-05-08 03:07 16.52770 -47.11585 40130 ft 459 kts 229°
2026-05-08 03:07 16.50640 -47.14062 40344 ft 458 kts 229°
2026-05-08 03:07 16.48518 -47.16532 40548 ft 457 kts 229°
2026-05-08 03:07 16.46395 -47.19000 40763 ft 456 kts 229°
2026-05-08 03:08 16.44280 -47.21458 40985 ft 455 kts 229°
2026-05-08 03:08 16.40034 -47.26392 41040 ft 459 kts 229°
2026-05-08 03:09 16.35787 -47.31323 41040 ft 456 kts 229°
2026-05-08 03:09 16.31553 -47.36236 41038 ft 455 kts 229°
2026-05-08 03:10 16.27325 -47.41137 41042 ft 454 kts 229°
2026-05-08 03:10 16.23114 -47.46017 41041 ft 453 kts 229°
2026-05-08 03:11 16.19610 -47.50074 41035 ft 454 kts 229°
2026-05-08 03:11 16.14693 -47.55763 41042 ft 455 kts 229°
2026-05-08 03:12 16.10456 -47.60662 41043 ft 455 kts 229°
2026-05-08 03:12 16.06942 -47.64723 41045 ft 453 kts 229°
2026-05-08 03:13 16.02738 -47.69578 41041 ft 451 kts 229°
2026-05-08 03:13 15.98529 -47.74435 41042 ft 453 kts 229°
2026-05-08 03:14 15.94298 -47.79314 41037 ft 455 kts 229°
2026-05-08 03:14 15.90057 -47.84201 41038 ft 454 kts 229°
2026-05-08 03:15 15.85839 -47.89059 41037 ft 451 kts 229°
2026-05-08 03:15 15.81630 -47.93903 41036 ft 452 kts 229°
2026-05-08 03:16 15.77407 -47.98760 41040 ft 454 kts 229°
2026-05-08 03:16 15.73197 -48.03599 41037 ft 455 kts 229°
2026-05-08 03:17 15.68940 -48.08488 41035 ft 453 kts 229°
2026-05-08 03:17 15.64750 -48.13297 41035 ft 451 kts 229°
2026-05-08 03:18 15.60539 -48.18127 41034 ft 452 kts 229°
2026-05-08 03:18 15.56321 -48.22962 41032 ft 453 kts 229°
2026-05-08 03:19 15.52098 -48.27800 41036 ft 453 kts 229°
2026-05-08 03:19 15.47864 -48.32646 41045 ft 454 kts 229°
2026-05-08 03:20 15.43622 -48.37499 41044 ft 455 kts 229°
2026-05-08 03:20 15.39375 -48.42354 41050 ft 454 kts 229°
2026-05-08 03:21 15.35144 -48.47188 41042 ft 451 kts 229°
2026-05-08 03:21 15.30923 -48.52008 41030 ft 453 kts 229°
2026-05-08 03:22 15.26683 -48.56845 41038 ft 454 kts 229°
2026-05-08 03:22 15.22437 -48.61687 41040 ft 454 kts 229°
2026-05-08 03:23 15.18219 -48.66494 41049 ft 454 kts 229°
2026-05-08 03:23 15.13988 -48.71312 41039 ft 451 kts 229°
2026-05-08 03:24 15.09758 -48.76127 41031 ft 453 kts 229°
2026-05-08 03:24 15.05508 -48.80960 41031 ft 454 kts 229°
2026-05-08 03:25 15.01252 -48.85798 41035 ft 455 kts 229°
2026-05-08 03:25 14.96993 -48.90635 41036 ft 454 kts 229°
2026-05-08 03:26 14.92740 -48.95463 41033 ft 454 kts 229°
2026-05-08 03:26 14.88482 -49.00293 41028 ft 455 kts 229°
2026-05-08 03:27 14.84242 -49.05100 41034 ft 456 kts 229°
2026-05-08 03:27 14.79969 -49.09942 41032 ft 455 kts 229°
2026-05-08 03:28 14.75712 -49.14761 41028 ft 452 kts 229°
2026-05-08 03:28 14.71478 -49.19553 41026 ft 452 kts 229°
2026-05-08 03:29 14.67231 -49.24356 41031 ft 455 kts 229°
2026-05-08 03:29 14.62956 -49.29187 41029 ft 456 kts 229°
2026-05-08 03:30 14.56552 -49.36420 41030 ft 453 kts 229°
2026-05-08 03:31 14.48062 -49.45997 41023 ft 453 kts 229°
2026-05-08 03:32 14.41652 -49.53221 41045 ft 456 kts 229°
2026-05-08 03:32 14.37379 -49.58033 41031 ft 453 kts 229°
2026-05-08 03:33 14.33153 -49.62788 41027 ft 452 kts 228°
2026-05-08 03:33 14.28906 -49.67565 41027 ft 451 kts 228°
2026-05-08 03:34 14.24659 -49.72339 41040 ft 452 kts 228°
2026-05-08 03:34 14.20386 -49.77138 41039 ft 455 kts 228°
2026-05-08 03:35 14.16120 -49.81927 41039 ft 453 kts 228°
2026-05-08 03:35 14.11860 -49.86707 41037 ft 453 kts 228°
2026-05-08 03:36 14.07603 -49.91481 41021 ft 452 kts 228°
2026-05-08 03:36 14.03353 -49.96243 41023 ft 452 kts 228°
2026-05-08 03:37 13.99194 -50.01025 41051 ft 449 kts 232°
2026-05-08 03:37 13.95285 -50.06058 41025 ft 451 kts 232°
2026-05-08 03:38 13.91354 -50.11097 41025 ft 451 kts 232°
2026-05-08 03:38 13.87433 -50.16131 41019 ft 450 kts 232°
2026-05-08 03:39 13.83513 -50.21154 41020 ft 449 kts 232°
2026-05-08 03:39 13.79604 -50.26163 41017 ft 450 kts 232°
2026-05-08 03:40 13.75668 -50.31202 41032 ft 453 kts 232°
2026-05-08 03:40 13.71725 -50.36248 41033 ft 452 kts 232°
2026-05-08 03:41 13.67784 -50.41288 41034 ft 452 kts 232°
2026-05-08 03:41 13.63849 -50.46318 41023 ft 450 kts 232°
2026-05-08 03:42 13.59955 -50.51292 41016 ft 449 kts 232°
2026-05-08 03:42 13.56026 -50.56308 41035 ft 453 kts 232°
2026-05-08 03:43 13.52072 -50.61352 41022 ft 453 kts 232°
2026-05-08 03:43 13.48121 -50.66391 41033 ft 452 kts 231°
2026-05-08 03:44 13.44189 -50.71401 41021 ft 450 kts 231°
2026-05-08 03:44 13.40265 -50.76399 41017 ft 449 kts 231°
2026-05-08 03:45 13.36336 -50.81401 41026 ft 450 kts 231°
2026-05-08 03:45 13.32395 -50.86415 41031 ft 453 kts 231°
2026-05-08 03:46 13.28438 -50.91446 41027 ft 451 kts 231°
2026-05-08 03:46 13.24527 -50.96415 41025 ft 450 kts 231°
2026-05-08 03:47 13.20598 -51.01405 41026 ft 449 kts 231°
2026-05-08 03:47 13.16665 -51.06397 41028 ft 450 kts 231°
2026-05-08 03:48 13.12730 -51.11389 41021 ft 451 kts 231°
2026-05-08 03:48 13.08776 -51.16403 41022 ft 453 kts 231°
2026-05-08 03:49 13.04810 -51.21428 41028 ft 453 kts 231°
2026-05-08 03:49 13.00842 -51.26452 41029 ft 453 kts 231°
2026-05-08 03:50 12.96879 -51.31469 41026 ft 452 kts 231°
2026-05-08 03:50 12.92922 -51.36475 41027 ft 451 kts 231°
2026-05-08 03:51 12.88978 -51.41460 41013 ft 450 kts 231°
2026-05-08 03:51 12.85050 -51.46424 41021 ft 452 kts 231°
2026-05-08 03:52 12.81076 -51.51443 41023 ft 454 kts 231°
2026-05-08 03:52 12.77105 -51.56455 41022 ft 452 kts 231°
2026-05-08 03:53 12.73150 -51.61445 41021 ft 450 kts 231°
2026-05-08 03:53 12.69207 -51.66416 41020 ft 449 kts 231°
2026-05-08 03:54 12.65264 -51.71385 41017 ft 450 kts 231°
2026-05-08 03:54 12.61294 -51.76384 41018 ft 453 kts 231°
2026-05-08 03:55 12.57318 -51.81389 41023 ft 453 kts 231°
2026-05-08 03:55 12.53352 -51.86378 41018 ft 450 kts 231°
2026-05-08 03:56 12.49410 -51.91335 41019 ft 449 kts 231°
2026-05-08 03:56 12.45489 -51.96263 41020 ft 450 kts 231°
2026-05-08 03:57 12.41529 -52.01237 41015 ft 452 kts 231°
2026-05-08 03:57 12.37545 -52.06238 41022 ft 453 kts 231°
2026-05-08 03:58 12.33578 -52.11215 41022 ft 450 kts 231°
2026-05-08 03:58 12.29623 -52.16175 41019 ft 449 kts 231°
2026-05-08 03:59 12.25674 -52.21125 41017 ft 449 kts 231°
2026-05-08 03:59 12.21723 -52.26074 41015 ft 449 kts 231°
2026-05-08 04:00 12.17773 -52.31020 41010 ft 449 kts 231°
2026-05-08 04:00 12.13828 -52.35957 41008 ft 448 kts 231°
2026-05-08 04:01 12.09887 -52.40886 41010 ft 448 kts 231°
2026-05-08 04:01 12.05961 -52.45794 41014 ft 450 kts 231°
2026-05-08 04:02 12.01994 -52.50751 41016 ft 451 kts 231°
2026-05-08 04:02 11.98020 -52.55714 41021 ft 450 kts 231°
2026-05-08 04:03 11.94068 -52.60647 41010 ft 448 kts 231°
2026-05-08 04:03 11.88131 -52.68053 41012 ft 450 kts 231°
2026-05-08 04:04 11.84160 -52.73004 41012 ft 451 kts 231°
2026-05-08 04:04 11.80182 -52.77960 41019 ft 451 kts 231°
2026-05-08 04:05 11.76223 -52.82890 41016 ft 448 kts 231°
2026-05-08 04:05 11.72277 -52.87802 41016 ft 447 kts 231°
2026-05-08 04:06 11.68332 -52.92710 41013 ft 447 kts 231°
2026-05-08 04:06 11.64386 -52.97617 41008 ft 447 kts 231°
2026-05-08 04:07 11.60463 -53.02492 41008 ft 447 kts 231°
2026-05-08 04:07 11.56521 -53.07389 41006 ft 446 kts 231°
2026-05-08 04:08 11.52589 -53.12272 41004 ft 445 kts 231°
2026-05-08 04:08 11.48654 -53.17156 41009 ft 446 kts 231°
2026-05-08 04:09 11.44703 -53.22056 41002 ft 449 kts 231°
2026-05-08 04:09 11.40730 -53.26982 41006 ft 450 kts 230°
2026-05-08 04:10 11.37432 -53.31070 41005 ft 448 kts 230°
2026-05-08 04:10 11.33487 -53.35957 41004 ft 446 kts 230°
2026-05-08 04:11 11.29544 -53.40839 41001 ft 447 kts 230°
2026-05-08 04:11 11.25587 -53.45735 41004 ft 448 kts 230°
2026-05-08 04:12 11.21621 -53.50642 41000 ft 449 kts 230°
2026-05-08 04:12 11.17665 -53.55533 41000 ft 451 kts 230°
2026-05-08 04:13 11.13680 -53.60457 41000 ft 450 kts 230°
2026-05-08 04:13 11.09706 -53.65366 41001 ft 449 kts 230°
2026-05-08 04:14 11.05742 -53.70261 40995 ft 448 kts 230°
2026-05-08 04:14 11.01783 -53.75146 40998 ft 447 kts 230°
2026-05-08 04:15 10.97828 -53.80024 40994 ft 446 kts 230°
2026-05-08 04:15 10.93877 -53.84897 40998 ft 447 kts 230°
2026-05-08 04:16 10.89905 -53.89791 41000 ft 449 kts 230°
2026-05-08 04:16 10.85921 -53.94698 41003 ft 450 kts 230°
2026-05-08 04:17 10.81933 -53.99608 41007 ft 450 kts 230°
2026-05-08 04:17 10.77949 -54.04511 41004 ft 448 kts 230°
2026-05-08 04:18 10.73983 -54.09390 41000 ft 447 kts 230°
2026-05-08 04:18 10.70054 -54.14220 40986 ft 446 kts 230°
2026-05-08 04:19 10.66078 -54.19106 40997 ft 450 kts 230°
2026-05-08 04:19 10.62086 -54.24011 41001 ft 450 kts 230°
2026-05-08 04:20 10.58093 -54.28913 41000 ft 449 kts 230°
2026-05-08 04:20 10.54109 -54.33802 40996 ft 448 kts 230°
2026-05-08 04:21 10.50142 -54.38669 40995 ft 447 kts 230°
2026-05-08 04:21 10.46173 -54.43537 40995 ft 448 kts 230°
2026-05-08 04:22 10.42218 -54.48384 40991 ft 450 kts 230°
2026-05-08 04:22 10.38219 -54.53283 41000 ft 451 kts 230°
2026-05-08 04:23 10.34212 -54.58190 41004 ft 451 kts 230°
2026-05-08 04:23 10.30206 -54.63093 41003 ft 451 kts 230°
2026-05-08 04:24 10.26198 -54.67996 41003 ft 451 kts 230°
2026-05-08 04:24 10.22191 -54.72897 41000 ft 451 kts 230°
2026-05-08 04:25 10.18183 -54.77798 40988 ft 451 kts 230°
2026-05-08 04:25 10.14168 -54.82703 40989 ft 452 kts 230°
2026-05-08 04:26 10.10141 -54.87621 40997 ft 453 kts 230°
2026-05-08 04:26 10.06116 -54.92536 40996 ft 452 kts 230°
2026-05-08 04:27 10.02105 -54.97430 40987 ft 450 kts 230°
2026-05-08 04:27 9.97980 -55.02192 40986 ft 449 kts 227°
2026-05-08 04:28 9.93707 -55.06843 40992 ft 452 kts 227°
2026-05-08 04:28 9.89436 -55.11485 40992 ft 454 kts 227°
2026-05-08 04:29 9.85125 -55.16168 40993 ft 454 kts 227°
2026-05-08 04:29 9.80824 -55.20840 40988 ft 452 kts 227°
2026-05-08 04:30 9.76538 -55.25492 40982 ft 451 kts 227°
2026-05-08 04:30 9.72257 -55.30138 40979 ft 451 kts 227°
2026-05-08 04:31 9.67967 -55.34790 40980 ft 452 kts 227°
2026-05-08 04:31 9.63670 -55.39450 40974 ft 453 kts 227°
2026-05-08 04:32 9.59352 -55.44130 40978 ft 455 kts 227°
2026-05-08 04:32 9.55058 -55.48783 40978 ft 454 kts 227°
2026-05-08 04:33 9.50750 -55.53448 40979 ft 453 kts 227°
2026-05-08 04:33 9.46453 -55.58099 40974 ft 451 kts 227°
2026-05-08 04:34 9.42167 -55.62737 40971 ft 451 kts 227°
2026-05-08 04:34 9.37868 -55.67387 40991 ft 453 kts 227°
2026-05-08 04:35 9.33562 -55.72044 40972 ft 452 kts 227°
2026-05-08 04:35 9.29270 -55.76683 40970 ft 450 kts 227°
2026-05-08 04:36 9.24990 -55.81308 40970 ft 450 kts 227°
2026-05-08 04:36 9.20707 -55.85933 40970 ft 450 kts 227°
2026-05-08 04:37 9.16424 -55.90557 40971 ft 450 kts 227°
2026-05-08 04:37 9.12143 -55.95178 40972 ft 450 kts 227°
2026-05-08 04:38 9.07833 -55.99707 40983 ft 450 kts 221°
2026-05-08 04:38 9.03101 -56.03871 40976 ft 452 kts 223°
2026-05-08 04:39 8.98358 -56.08059 40984 ft 453 kts 222°
2026-05-08 04:39 8.93598 -56.12246 40984 ft 453 kts 222°
2026-05-08 04:40 8.88847 -56.16437 40978 ft 453 kts 222°
2026-05-08 04:40 8.84092 -56.20620 40983 ft 453 kts 222°
2026-05-08 04:41 8.79341 -56.24805 40974 ft 453 kts 222°
2026-05-08 04:41 8.74582 -56.28991 40973 ft 453 kts 222°
2026-05-08 04:42 8.69823 -56.33178 40977 ft 453 kts 222°
2026-05-08 04:42 8.65106 -56.37325 40975 ft 452 kts 222°
2026-05-08 04:43 8.60367 -56.41490 40970 ft 451 kts 222°
2026-05-08 04:43 8.55643 -56.45641 40969 ft 450 kts 222°
2026-05-08 04:44 8.50917 -56.49793 40962 ft 451 kts 222°
2026-05-08 04:44 8.46162 -56.53969 40962 ft 454 kts 222°
2026-05-08 04:45 8.41391 -56.58156 40968 ft 454 kts 222°
2026-05-08 04:45 8.36630 -56.62334 40970 ft 453 kts 222°
2026-05-08 04:46 8.31883 -56.66498 40965 ft 452 kts 222°
2026-05-08 04:46 8.27177 -56.70625 40963 ft 450 kts 222°
2026-05-08 04:47 8.22446 -56.74772 40954 ft 451 kts 222°
2026-05-08 04:47 8.17688 -56.78943 40957 ft 454 kts 222°
2026-05-08 04:48 8.12917 -56.83122 40962 ft 454 kts 222°
2026-05-08 04:48 8.08140 -56.87305 40963 ft 454 kts 223°
2026-05-08 04:49 8.03369 -56.91482 40962 ft 454 kts 223°
2026-05-08 04:49 7.98597 -56.95659 40961 ft 454 kts 222°
2026-05-08 04:50 7.93827 -56.99832 40956 ft 454 kts 223°
2026-05-08 04:50 7.89044 -57.04016 40956 ft 456 kts 223°
2026-05-08 04:51 7.84243 -57.08214 40968 ft 456 kts 223°
2026-05-08 04:51 7.79456 -57.12399 40957 ft 455 kts 223°
2026-05-08 04:52 7.74685 -57.16569 40955 ft 453 kts 223°
2026-05-08 04:52 7.69930 -57.20723 40952 ft 452 kts 223°
2026-05-08 04:53 7.65169 -57.24882 40960 ft 454 kts 223°
2026-05-08 04:53 7.60413 -57.29034 40966 ft 456 kts 223°
2026-05-08 04:54 7.55614 -57.33223 40968 ft 457 kts 223°
2026-05-08 04:54 7.50817 -57.37409 40968 ft 456 kts 223°
2026-05-08 04:55 7.46021 -57.41592 40961 ft 455 kts 223°
2026-05-08 04:55 7.41239 -57.45762 40959 ft 454 kts 223°
2026-05-08 04:56 7.36472 -57.49918 40951 ft 453 kts 223°
2026-05-08 04:56 7.31702 -57.54094 40959 ft 456 kts 223°
2026-05-08 04:57 7.26921 -57.58302 40963 ft 457 kts 223°
2026-05-08 04:57 7.22130 -57.62502 40971 ft 457 kts 223°
2026-05-08 04:58 7.17337 -57.66711 40964 ft 457 kts 223°
2026-05-08 04:58 7.12556 -57.70904 40963 ft 455 kts 223°
2026-05-08 04:59 7.07788 -57.75086 40961 ft 454 kts 223°
2026-05-08 04:59 7.03022 -57.79264 40954 ft 455 kts 223°
2026-05-08 05:00 6.98233 -57.83462 40961 ft 457 kts 223°
2026-05-08 05:00 6.93469 -57.87637 40964 ft 457 kts 223°
2026-05-08 05:01 6.88672 -57.91839 40968 ft 457 kts 223°
2026-05-08 05:01 6.83869 -57.96045 40966 ft 458 kts 223°
2026-05-08 05:02 6.79062 -58.00255 40971 ft 458 kts 223°
2026-05-08 05:02 6.74245 -58.04470 40967 ft 459 kts 223°
2026-05-08 05:03 6.69429 -58.08684 40968 ft 458 kts 223°
2026-05-08 05:03 6.64629 -58.12884 40986 ft 457 kts 223°
2026-05-08 05:04 6.59843 -58.17069 40987 ft 455 kts 223°
2026-05-08 05:04 6.55066 -58.21246 40987 ft 455 kts 223°
2026-05-08 05:05 6.50020 -58.25017 41008 ft 460 kts 208°
2026-05-08 05:05 6.43912 -58.27052 41018 ft 469 kts 193°
2026-05-08 05:06 6.37500 -58.28252 41001 ft 468 kts 193°
2026-05-08 05:06 6.31112 -58.29434 40973 ft 466 kts 194°
2026-05-08 05:07 6.24745 -58.30622 40971 ft 465 kts 193°
2026-05-08 05:07 6.19460 -58.31603 40972 ft 465 kts 194°
2026-05-08 05:08 6.13083 -58.32788 40972 ft 466 kts 193°
2026-05-08 05:08 6.06697 -58.33975 40974 ft 467 kts 193°
2026-05-08 05:09 6.00313 -58.35161 40974 ft 466 kts 193°
2026-05-08 05:09 5.93935 -58.36345 40970 ft 466 kts 193°
2026-05-08 05:10 5.84373 -58.38121 40973 ft 465 kts 194°
2026-05-08 05:11 5.78009 -58.39302 40966 ft 466 kts 194°
2026-05-08 05:11 5.71675 -58.40478 40969 ft 467 kts 194°
2026-05-08 05:12 5.65280 -58.41664 40972 ft 468 kts 194°
2026-05-08 05:12 5.58879 -58.42858 40974 ft 468 kts 194°
2026-05-08 05:13 5.52488 -58.44082 40974 ft 468 kts 194°
2026-05-08 05:13 5.46086 -58.45290 40958 ft 468 kts 194°
2026-05-08 05:14 5.39688 -58.46506 40964 ft 467 kts 194°
2026-05-08 05:14 5.33296 -58.47716 40960 ft 467 kts 194°
2026-05-08 05:15 5.26918 -58.48925 40958 ft 467 kts 194°
2026-05-08 05:15 5.20535 -58.50135 40957 ft 467 kts 194°
2026-05-08 05:16 5.14195 -58.51336 40959 ft 467 kts 194°
2026-05-08 05:16 5.07801 -58.52547 40960 ft 468 kts 194°
2026-05-08 05:17 5.01403 -58.53758 40963 ft 468 kts 194°
2026-05-08 05:17 4.94996 -58.54971 40965 ft 469 kts 194°
2026-05-08 05:18 4.88578 -58.56186 40968 ft 469 kts 194°
2026-05-08 05:18 4.82164 -58.57399 40965 ft 469 kts 194°
2026-05-08 05:19 4.75756 -58.58612 40960 ft 469 kts 194°
2026-05-08 05:19 4.69350 -58.59824 40961 ft 468 kts 194°
2026-05-08 05:20 4.62949 -58.61034 40957 ft 468 kts 194°
2026-05-08 05:20 4.56551 -58.62244 40956 ft 468 kts 194°
2026-05-08 05:21 4.50150 -58.63454 40952 ft 468 kts 194°
2026-05-08 05:21 4.43804 -58.64654 40950 ft 467 kts 194°
2026-05-08 05:22 4.37416 -58.65861 40947 ft 467 kts 194°
2026-05-08 05:22 4.31035 -58.67067 40947 ft 467 kts 194°
2026-05-08 05:23 4.24643 -58.68275 40948 ft 467 kts 194°
2026-05-08 05:23 4.18256 -58.69481 40946 ft 466 kts 194°
2026-05-08 05:24 4.11888 -58.70684 40943 ft 465 kts 194°
2026-05-08 05:24 4.05528 -58.71885 40941 ft 465 kts 194°
2026-05-08 05:25 3.99156 -58.73088 40940 ft 467 kts 194°
2026-05-08 05:25 3.92765 -58.74294 40945 ft 468 kts 194°
2026-05-08 05:26 3.86360 -58.75503 40944 ft 468 kts 194°
2026-05-08 05:26 3.80025 -58.76706 40942 ft 466 kts 194°
2026-05-08 05:27 3.73668 -58.77911 40934 ft 464 kts 194°
2026-05-08 05:27 3.67315 -58.79115 40934 ft 465 kts 194°
2026-05-08 05:28 3.60946 -58.80322 40941 ft 466 kts 194°
2026-05-08 05:28 3.54563 -58.81533 40942 ft 468 kts 194°
2026-05-08 05:29 3.48151 -58.82747 40947 ft 469 kts 194°
2026-05-08 05:29 3.41738 -58.83962 40949 ft 468 kts 194°
2026-05-08 05:30 3.35338 -58.85175 40948 ft 467 kts 194°
2026-05-08 05:30 3.28956 -58.86383 40946 ft 466 kts 194°
2026-05-08 05:31 3.22577 -58.87592 40947 ft 468 kts 194°
2026-05-08 05:31 3.16148 -58.88809 40950 ft 471 kts 194°
2026-05-08 05:32 3.09756 -58.90019 40952 ft 470 kts 194°
2026-05-08 05:32 3.03328 -58.91236 40951 ft 470 kts 194°
2026-05-08 05:33 2.96912 -58.92450 40946 ft 469 kts 194°
2026-05-08 05:33 2.90505 -58.93663 40943 ft 468 kts 194°
2026-05-08 05:34 2.84102 -58.94875 40937 ft 468 kts 194°
2026-05-08 05:34 2.77705 -58.96085 40934 ft 468 kts 194°
2026-05-08 05:35 2.71295 -58.97298 40937 ft 469 kts 194°
2026-05-08 05:35 2.64877 -58.98512 40940 ft 470 kts 194°
2026-05-08 05:36 2.58443 -58.99729 40948 ft 471 kts 194°
2026-05-08 05:36 2.51989 -59.00950 40948 ft 472 kts 194°
2026-05-08 05:37 2.45543 -59.02169 40945 ft 471 kts 194°
2026-05-08 05:37 2.39153 -59.03378 40939 ft 470 kts 194°
2026-05-08 05:38 2.32731 -59.04592 40941 ft 469 kts 194°
2026-05-08 05:38 2.26310 -59.05806 40939 ft 470 kts 194°
2026-05-08 05:39 2.19878 -59.07022 40939 ft 471 kts 194°
2026-05-08 05:39 2.13444 -59.08238 40939 ft 470 kts 194°
2026-05-08 05:40 2.07012 -59.09454 40945 ft 470 kts 194°
2026-05-08 05:40 2.00627 -59.10661 40945 ft 470 kts 194°
2026-05-08 05:41 1.94206 -59.11875 40946 ft 469 kts 194°
2026-05-08 05:41 1.87798 -59.13085 40942 ft 468 kts 194°
2026-05-08 05:42 1.81403 -59.14294 40940 ft 468 kts 194°
2026-05-08 05:42 1.74988 -59.15506 40940 ft 470 kts 194°
2026-05-08 05:43 1.68561 -59.16720 40950 ft 470 kts 194°
2026-05-08 05:43 1.62137 -59.17934 40944 ft 469 kts 194°
2026-05-08 05:44 1.55736 -59.19143 40942 ft 467 kts 194°
2026-05-08 05:44 1.49354 -59.20349 40941 ft 468 kts 194°
2026-05-08 05:45 1.42947 -59.21559 40937 ft 468 kts 194°
2026-05-08 05:45 1.36538 -59.22769 40941 ft 468 kts 194°
2026-05-08 05:46 1.30193 -59.24058 40936 ft 469 kts 194°
2026-05-08 05:46 1.23765 -59.25357 40940 ft 473 kts 194°
2026-05-08 05:47 1.17323 -59.26653 40934 ft 472 kts 194°
2026-05-08 05:47 1.10894 -59.27955 40932 ft 471 kts 194°
2026-05-08 05:48 1.04470 -59.29248 40928 ft 471 kts 194°
2026-05-08 05:48 0.98045 -59.30548 40925 ft 471 kts 194°
2026-05-08 05:49 0.91614 -59.31844 40920 ft 471 kts 194°
2026-05-08 05:49 0.85179 -59.33144 40922 ft 472 kts 194°
2026-05-08 05:50 0.78731 -59.34445 40926 ft 473 kts 194°
2026-05-08 05:50 0.72275 -59.35758 40928 ft 473 kts 194°
2026-05-08 05:51 0.65839 -59.37065 40923 ft 471 kts 194°
2026-05-08 05:51 0.59439 -59.38365 40915 ft 468 kts 194°
2026-05-08 05:52 0.53051 -59.39659 40919 ft 469 kts 193°
2026-05-08 05:52 0.46635 -59.40957 40925 ft 471 kts 193°
2026-05-08 05:53 0.40245 -59.42250 40932 ft 472 kts 193°
2026-05-08 05:53 0.33808 -59.43552 40932 ft 471 kts 193°
2026-05-08 05:54 0.27402 -59.44856 40926 ft 469 kts 193°
2026-05-08 05:54 0.21022 -59.46157 40921 ft 467 kts 193°
2026-05-08 05:55 0.14646 -59.47456 40919 ft 468 kts 193°
2026-05-08 05:55 0.08247 -59.48760 40922 ft 470 kts 193°
2026-05-08 05:56 0.01836 -59.50066 40928 ft 471 kts 193°
2026-05-08 05:56 -0.04591 -59.51376 40927 ft 472 kts 193°
2026-05-08 05:57 -0.11026 -59.52686 40929 ft 471 kts 193°
2026-05-08 05:57 -0.17438 -59.53993 40926 ft 470 kts 193°
2026-05-08 05:58 -0.23840 -59.55297 40924 ft 469 kts 193°
2026-05-08 05:58 -0.30240 -59.56601 40923 ft 469 kts 193°
2026-05-08 05:59 -0.36639 -59.57905 40922 ft 469 kts 193°
2026-05-08 05:59 -0.42996 -59.59201 40924 ft 469 kts 193°
2026-05-08 06:00 -0.49399 -59.60505 40926 ft 469 kts 193°
2026-05-08 06:00 -0.55777 -59.61805 40924 ft 467 kts 193°
2026-05-08 06:01 -0.62152 -59.63104 40924 ft 468 kts 193°
2026-05-08 06:01 -0.68533 -59.64404 40926 ft 469 kts 193°
2026-05-08 06:02 -0.74934 -59.65709 40931 ft 470 kts 193°
2026-05-08 06:02 -0.81347 -59.67015 40931 ft 470 kts 193°
2026-05-08 06:03 -0.86670 -59.68101 40931 ft 469 kts 193°
2026-05-08 06:03 -0.93063 -59.69404 40928 ft 469 kts 193°
2026-05-08 06:04 -0.99463 -59.70708 40927 ft 469 kts 193°
2026-05-08 06:04 -1.05875 -59.72015 40925 ft 471 kts 193°
2026-05-08 06:05 -1.12297 -59.73324 40926 ft 471 kts 193°
2026-05-08 06:05 -1.18710 -59.74632 40926 ft 470 kts 193°
2026-05-08 06:06 -1.25078 -59.75930 40924 ft 470 kts 193°
2026-05-08 06:06 -1.31478 -59.77235 40924 ft 470 kts 193°
2026-05-08 06:07 -1.37884 -59.78540 40924 ft 470 kts 193°
2026-05-08 06:07 -1.44291 -59.79847 40924 ft 470 kts 193°
2026-05-08 06:08 -1.50701 -59.81154 40920 ft 470 kts 193°
2026-05-08 06:08 -1.57109 -59.82460 40921 ft 470 kts 193°
2026-05-08 06:09 -1.63513 -59.83767 40925 ft 470 kts 193°
2026-05-08 06:09 -1.69906 -59.85071 40925 ft 467 kts 193°
2026-05-08 06:10 -1.76272 -59.86370 40926 ft 466 kts 193°
2026-05-08 06:10 -1.82629 -59.87668 40925 ft 467 kts 193°
2026-05-08 06:11 -1.88990 -59.88966 40919 ft 467 kts 193°
2026-05-08 06:11 -1.95371 -59.90268 40923 ft 469 kts 193°
2026-05-08 06:12 -2.01764 -59.91572 40931 ft 468 kts 193°
2026-05-08 06:12 -2.08136 -59.92873 40928 ft 467 kts 193°
2026-05-08 06:13 -2.14453 -59.94163 40926 ft 466 kts 193°
2026-05-08 06:13 -2.20814 -59.95461 40926 ft 466 kts 193°
2026-05-08 06:14 -2.27173 -59.96760 40930 ft 467 kts 193°
2026-05-08 06:14 -2.33536 -59.98067 40934 ft 467 kts 193°
2026-05-08 06:15 -2.39916 -59.99204 40954 ft 466 kts 186°
2026-05-08 06:15 -2.46386 -59.99838 40927 ft 468 kts 187°
2026-05-08 06:16 -2.52865 -60.00472 40928 ft 468 kts 187°
2026-05-08 06:16 -2.59357 -60.01104 40926 ft 469 kts 187°
2026-05-08 06:17 -2.69102 -60.02058 40923 ft 469 kts 187°
2026-05-08 06:17 -2.75608 -60.02696 40926 ft 470 kts 187°
2026-05-08 06:18 -2.82120 -60.03332 40939 ft 470 kts 187°
2026-05-08 06:18 -2.88617 -60.03968 40941 ft 468 kts 187°
2026-05-08 06:19 -2.95088 -60.04601 40943 ft 467 kts 187°
2026-05-08 06:19 -3.01496 -60.05503 40967 ft 464 kts 198°
2026-05-08 06:20 -3.07252 -60.08275 40962 ft 465 kts 218°
2026-05-08 06:20 -3.12242 -60.12385 40945 ft 465 kts 220°
2026-05-08 06:21 -3.17185 -60.16557 40941 ft 465 kts 220°
2026-05-08 06:21 -3.22135 -60.20710 40935 ft 464 kts 220°
2026-05-08 06:22 -3.27079 -60.24871 40927 ft 464 kts 220°
2026-05-08 06:22 -3.32215 -60.28773 40920 ft 464 kts 217°
2026-05-08 06:23 -3.37407 -60.32618 40922 ft 464 kts 217°
2026-05-08 06:23 -3.42611 -60.36451 40923 ft 465 kts 217°
2026-05-08 06:24 -3.47813 -60.40293 40923 ft 465 kts 217°
2026-05-08 06:24 -3.53021 -60.44135 40925 ft 465 kts 217°
2026-05-08 06:25 -3.58230 -60.47981 40920 ft 465 kts 217°
2026-05-08 06:25 -3.63441 -60.51828 40921 ft 466 kts 217°
2026-05-08 06:26 -3.68778 -60.55428 40921 ft 466 kts 214°
2026-05-08 06:26 -3.74181 -60.59020 40922 ft 466 kts 214°
2026-05-08 06:27 -3.79595 -60.62586 40916 ft 465 kts 214°
2026-05-08 06:27 -3.84990 -60.66158 40911 ft 465 kts 214°
2026-05-08 06:28 -3.90386 -60.69721 40912 ft 464 kts 214°
2026-05-08 06:28 -3.95773 -60.73285 40908 ft 464 kts 214°
2026-05-08 06:29 -4.01156 -60.76843 40909 ft 463 kts 214°
2026-05-08 06:29 -4.06529 -60.80397 40912 ft 463 kts 214°
2026-05-08 06:30 -4.11904 -60.83951 40919 ft 463 kts 214°
2026-05-08 06:30 -4.17288 -60.87514 40923 ft 465 kts 214°
2026-05-08 06:31 -4.22699 -60.91094 40928 ft 467 kts 214°
2026-05-08 06:31 -4.28119 -60.94680 40928 ft 466 kts 214°
2026-05-08 06:32 -4.33525 -60.98259 40932 ft 465 kts 214°
2026-05-08 06:32 -4.38922 -61.01831 40925 ft 465 kts 214°
2026-05-08 06:33 -4.44310 -61.05399 40923 ft 464 kts 214°
2026-05-08 06:33 -4.49692 -61.08963 40918 ft 463 kts 214°
2026-05-08 06:34 -4.55029 -61.12498 40918 ft 463 kts 214°
2026-05-08 06:34 -4.60419 -61.16068 40919 ft 465 kts 214°
2026-05-08 06:35 -4.65823 -61.19650 40930 ft 466 kts 214°
2026-05-08 06:35 -4.71246 -61.23243 40931 ft 467 kts 214°
2026-05-08 06:36 -4.76660 -61.26832 40928 ft 466 kts 214°
2026-05-08 06:36 -4.82079 -61.30383 40925 ft 465 kts 214°
2026-05-08 06:37 -4.87501 -61.33894 40924 ft 463 kts 214°
2026-05-08 06:37 -4.92861 -61.37396 40922 ft 463 kts 214°
2026-05-08 06:38 -4.98281 -61.40919 40922 ft 464 kts 214°
2026-05-08 06:38 -5.03707 -61.44457 40927 ft 466 kts 214°
2026-05-08 06:39 -5.09155 -61.48005 40933 ft 468 kts 214°
2026-05-08 06:39 -5.14605 -61.51559 40930 ft 466 kts 215°
2026-05-08 06:40 -5.19958 -61.55219 40930 ft 465 kts 216°
2026-05-08 06:40 -5.25330 -61.58845 40925 ft 465 kts 215°
2026-05-08 06:41 -5.30681 -61.62470 40924 ft 464 kts 216°
2026-05-08 06:41 -5.36024 -61.66091 40921 ft 463 kts 215°
2026-05-08 06:42 -5.41374 -61.69714 40924 ft 465 kts 216°
2026-05-08 06:42 -5.46752 -61.73360 40930 ft 468 kts 216°
2026-05-08 06:43 -5.52109 -61.76989 40924 ft 467 kts 216°
2026-05-08 06:43 -5.57486 -61.80636 40927 ft 466 kts 216°
2026-05-08 06:44 -5.62862 -61.84261 40923 ft 465 kts 214°
2026-05-08 06:44 -5.68280 -61.87792 40920 ft 464 kts 215°
2026-05-08 06:45 -5.73665 -61.91366 40923 ft 465 kts 215°
2026-05-08 06:45 -5.79081 -61.94929 40925 ft 466 kts 215°
2026-05-08 06:46 -5.84493 -61.98506 40928 ft 465 kts 215°
2026-05-08 06:46 -5.89905 -62.02077 40928 ft 465 kts 215°
2026-05-08 06:47 -5.95317 -62.05650 40926 ft 465 kts 215°
2026-05-08 06:47 -6.00689 -62.09198 40924 ft 465 kts 215°
2026-05-08 06:48 -6.06100 -62.12773 40929 ft 465 kts 215°
2026-05-08 06:48 -6.11522 -62.16356 40934 ft 467 kts 215°
2026-05-08 06:49 -6.16967 -62.19955 40933 ft 469 kts 215°
2026-05-08 06:49 -6.22411 -62.23554 40926 ft 468 kts 215°
2026-05-08 06:50 -6.27833 -62.27139 40926 ft 466 kts 215°
2026-05-08 06:50 -6.33243 -62.30718 40923 ft 465 kts 215°
2026-05-08 06:51 -6.38649 -62.34295 40920 ft 465 kts 215°
2026-05-08 06:51 -6.44056 -62.37874 40923 ft 466 kts 215°
2026-05-08 06:52 -6.49485 -62.41467 40925 ft 468 kts 215°
2026-05-08 06:52 -6.54925 -62.45081 40926 ft 469 kts 216°
2026-05-08 06:53 -6.60334 -62.48724 40924 ft 467 kts 215°
2026-05-08 06:53 -6.65701 -62.52312 40922 ft 466 kts 215°
2026-05-08 06:54 -6.71076 -62.55921 40913 ft 464 kts 215°
2026-05-08 06:54 -6.76453 -62.59526 40918 ft 465 kts 215°
2026-05-08 06:55 -6.81843 -62.63144 40919 ft 466 kts 215°
2026-05-08 06:55 -6.87245 -62.66769 40918 ft 467 kts 215°
2026-05-08 06:56 -6.92652 -62.70399 40922 ft 467 kts 215°
2026-05-08 06:56 -6.98069 -62.74021 40921 ft 467 kts 215°
2026-05-08 06:57 -7.02578 -62.77015 40922 ft 467 kts 215°
2026-05-08 06:57 -7.07992 -62.80629 40921 ft 467 kts 215°
2026-05-08 06:58 -7.13404 -62.84234 40921 ft 466 kts 215°
2026-05-08 06:58 -7.19674 -62.88417 40917 ft 464 kts 215°
2026-05-08 06:59 -7.24185 -62.91424 40916 ft 464 kts 215°
2026-05-08 06:59 -7.29572 -62.95019 40916 ft 465 kts 215°
2026-05-08 07:00 -7.34975 -62.98624 40918 ft 466 kts 215°
2026-05-08 07:00 -7.40377 -63.02231 40920 ft 466 kts 215°
2026-05-08 07:01 -7.45783 -63.05841 40918 ft 466 kts 215°
2026-05-08 07:01 -7.51185 -63.09450 40916 ft 466 kts 215°
2026-05-08 07:02 -7.56583 -63.13067 40917 ft 465 kts 216°
2026-05-08 07:02 -7.61933 -63.16659 40917 ft 465 kts 216°
2026-05-08 07:03 -7.67315 -63.20269 40916 ft 464 kts 216°
2026-05-08 07:03 -7.72687 -63.23875 40914 ft 463 kts 216°
2026-05-08 07:04 -7.78060 -63.27482 40910 ft 464 kts 216°
2026-05-08 07:04 -7.83449 -63.31102 40916 ft 467 kts 216°
2026-05-08 07:05 -7.88862 -63.34738 40915 ft 467 kts 216°
2026-05-08 07:05 -7.94268 -63.38369 40915 ft 466 kts 216°
2026-05-08 07:06 -7.99658 -63.41992 40912 ft 465 kts 216°
2026-05-08 07:06 -8.05037 -63.45607 40910 ft 464 kts 216°
2026-05-08 07:07 -8.10395 -63.49211 40904 ft 463 kts 216°
2026-05-08 07:07 -8.15725 -63.52796 40909 ft 464 kts 216°
2026-05-08 07:08 -8.21095 -63.56409 40911 ft 464 kts 216°
2026-05-08 07:08 -8.26468 -63.60026 40913 ft 464 kts 216°
2026-05-08 07:09 -8.31845 -63.63650 40907 ft 465 kts 216°
2026-05-08 07:09 -8.37219 -63.67273 40908 ft 465 kts 216°
2026-05-08 07:10 -8.42596 -63.70899 40908 ft 465 kts 216°
2026-05-08 07:10 -8.47978 -63.74529 40911 ft 465 kts 216°
2026-05-08 07:11 -8.53355 -63.78158 40897 ft 465 kts 216°
2026-05-08 07:11 -8.58731 -63.81787 40893 ft 464 kts 216°
2026-05-08 07:12 -8.64102 -63.85414 40894 ft 464 kts 216°
2026-05-08 07:12 -8.69118 -63.89437 40902 ft 459 kts 231°
2026-05-08 07:13 -8.72580 -63.94813 40908 ft 458 kts 249°
2026-05-08 07:13 -8.74547 -64.00942 40893 ft 459 kts 253°
2026-05-08 07:14 -8.76370 -64.07104 40897 ft 456 kts 253°
2026-05-08 07:14 -8.78202 -64.13239 40902 ft 455 kts 253°
2026-05-08 07:15 -8.80009 -64.19324 40906 ft 455 kts 254°
2026-05-08 07:15 -8.81846 -64.25503 40907 ft 457 kts 253°
2026-05-08 07:16 -8.83664 -64.31623 40908 ft 458 kts 254°
2026-05-08 07:16 -8.85498 -64.37801 40904 ft 459 kts 254°
2026-05-08 07:17 -8.87325 -64.43961 40905 ft 456 kts 254°
2026-05-08 07:17 -8.89143 -64.50092 40903 ft 455 kts 254°
2026-05-08 07:18 -8.90960 -64.56229 40906 ft 456 kts 254°
2026-05-08 07:18 -8.92764 -64.62386 40912 ft 457 kts 254°
2026-05-08 07:19 -8.94579 -64.68558 40906 ft 458 kts 254°
2026-05-08 07:19 -8.96394 -64.74742 40908 ft 458 kts 254°
2026-05-08 07:20 -8.98204 -64.80911 40908 ft 457 kts 254°
2026-05-08 07:20 -9.00009 -64.87069 40906 ft 456 kts 254°
2026-05-08 07:21 -9.01809 -64.93214 40904 ft 455 kts 254°
2026-05-08 07:21 -9.03607 -64.99354 40904 ft 455 kts 254°
2026-05-08 07:22 -9.05396 -65.05471 40900 ft 453 kts 254°
2026-05-08 07:22 -9.07174 -65.11554 40902 ft 454 kts 254°
2026-05-08 07:23 -9.08968 -65.17692 40904 ft 456 kts 254°
2026-05-08 07:23 -9.10765 -65.23846 40908 ft 457 kts 254°
2026-05-08 07:24 -9.12564 -65.30012 40905 ft 456 kts 254°
2026-05-08 07:24 -9.14355 -65.36157 40903 ft 454 kts 254°
2026-05-08 07:25 -9.16139 -65.42279 40901 ft 453 kts 254°
2026-05-08 07:26 -9.18808 -65.51448 40896 ft 454 kts 254°
2026-05-08 07:26 -9.20595 -65.57587 40900 ft 455 kts 254°
2026-05-08 07:27 -9.22373 -65.63706 40903 ft 456 kts 255°
2026-05-08 07:27 -9.24160 -65.69858 40903 ft 455 kts 255°
2026-05-08 07:28 -9.25942 -65.75994 40902 ft 454 kts 255°
2026-05-08 07:28 -9.27719 -65.82121 40898 ft 453 kts 255°
2026-05-08 07:29 -9.29491 -65.88235 40895 ft 452 kts 255°
2026-05-08 07:29 -9.31263 -65.94352 40896 ft 454 kts 255°
2026-05-08 07:30 -9.33037 -66.00481 40899 ft 453 kts 255°
2026-05-08 07:30 -9.34809 -66.06603 40904 ft 453 kts 255°
2026-05-08 07:31 -9.36578 -66.12723 40901 ft 452 kts 255°
2026-05-08 07:31 -9.38342 -66.18831 40899 ft 452 kts 255°
2026-05-08 07:32 -9.40105 -66.24937 40897 ft 451 kts 255°
2026-05-08 07:32 -9.41865 -66.31038 40900 ft 452 kts 255°
2026-05-08 07:33 -9.43620 -66.37125 40902 ft 454 kts 255°
2026-05-08 07:33 -9.45390 -66.43269 40903 ft 455 kts 255°
2026-05-08 07:34 -9.47160 -66.49418 40901 ft 454 kts 255°
2026-05-08 07:34 -9.48926 -66.55558 40900 ft 453 kts 255°
2026-05-08 07:35 -9.50687 -66.61682 40899 ft 452 kts 255°
2026-05-08 07:35 -9.52440 -66.67785 40893 ft 451 kts 255°
2026-05-08 07:36 -9.54195 -66.73899 40894 ft 453 kts 255°
2026-05-08 07:36 -9.55956 -66.80036 40898 ft 454 kts 255°
2026-05-08 07:37 -9.57718 -66.86183 40900 ft 455 kts 255°
2026-05-08 07:37 -9.59479 -66.92332 40900 ft 454 kts 255°
2026-05-08 07:38 -9.61221 -66.98415 40893 ft 452 kts 255°
2026-05-08 07:38 -9.62969 -67.04529 40888 ft 451 kts 255°
2026-05-08 07:39 -9.64711 -67.10623 40883 ft 450 kts 255°
2026-05-08 07:39 -9.66457 -67.16735 40889 ft 452 kts 255°
2026-05-08 07:40 -9.68208 -67.22867 40895 ft 454 kts 255°
2026-05-08 07:40 -9.69984 -67.29031 40897 ft 456 kts 255°
2026-05-08 07:41 -9.71754 -67.35193 40897 ft 455 kts 255°
2026-05-08 07:41 -9.73519 -67.41340 40894 ft 454 kts 255°
2026-05-08 07:42 -9.75279 -67.47473 40890 ft 453 kts 255°
2026-05-08 07:42 -9.77037 -67.53606 40887 ft 452 kts 255°
2026-05-08 07:43 -9.78774 -67.59666 40886 ft 449 kts 255°
2026-05-08 07:43 -9.80515 -67.65752 40891 ft 449 kts 255°
2026-05-08 07:44 -9.82252 -67.71821 40889 ft 448 kts 255°
2026-05-08 07:44 -9.84022 -67.77878 40892 ft 449 kts 250°
2026-05-08 07:45 -9.87078 -67.83433 40906 ft 457 kts 233°
2026-05-08 07:45 -9.91800 -67.87815 40905 ft 467 kts 216°
2026-05-08 07:46 -9.97803 -67.90472 40910 ft 479 kts 197°
2026-05-08 07:46 -10.04486 -67.91161 40890 ft 485 kts 187°
2026-05-08 07:47 -10.11234 -67.91409 40896 ft 485 kts 187°
2026-05-08 07:47 -10.17963 -67.91655 40892 ft 484 kts 187°
2026-05-08 07:48 -10.24711 -67.91908 40889 ft 486 kts 187°
2026-05-08 07:48 -10.31479 -67.92154 40892 ft 487 kts 187°
2026-05-08 07:49 -10.38247 -67.92406 40896 ft 486 kts 187°
2026-05-08 07:49 -10.44961 -67.92653 40892 ft 486 kts 187°
2026-05-08 07:50 -10.51722 -67.92903 40886 ft 486 kts 187°
2026-05-08 07:50 -10.58485 -67.93153 40887 ft 486 kts 187°
2026-05-08 07:51 -10.65252 -67.93403 40886 ft 487 kts 187°
2026-05-08 07:51 -10.70912 -67.93698 40890 ft 486 kts 188°
2026-05-08 07:52 -10.77679 -67.94054 40887 ft 487 kts 187°
2026-05-08 07:52 -10.84407 -67.94386 40891 ft 487 kts 188°
2026-05-08 07:53 -10.91184 -67.94739 40885 ft 488 kts 188°
2026-05-08 07:53 -10.97961 -67.95078 40884 ft 487 kts 188°
2026-05-08 07:54 -11.04721 -67.95426 40880 ft 486 kts 188°
2026-05-08 07:54 -11.11468 -67.95768 40880 ft 485 kts 188°
2026-05-08 07:55 -11.18209 -67.96113 40881 ft 485 kts 188°
2026-05-08 07:55 -11.24970 -67.96457 40880 ft 487 kts 188°
2026-05-08 07:56 -11.31748 -67.96803 40882 ft 488 kts 188°
2026-05-08 07:56 -11.38529 -67.97149 40878 ft 487 kts 188°
2026-05-08 07:57 -11.45300 -67.97495 40878 ft 487 kts 188°
2026-05-08 07:57 -11.52063 -67.97841 40877 ft 486 kts 188°
2026-05-08 07:58 -11.58825 -67.98187 40876 ft 487 kts 188°
2026-05-08 07:58 -11.65598 -67.98533 40874 ft 487 kts 188°
2026-05-08 07:59 -11.72378 -67.98880 40874 ft 488 kts 188°
2026-05-08 07:59 -11.79162 -67.99228 40874 ft 488 kts 188°
2026-05-08 08:00 -11.85909 -67.99573 40875 ft 489 kts 188°
2026-05-08 08:00 -11.92700 -67.99921 40869 ft 488 kts 188°
2026-05-08 08:01 -11.99465 -68.00268 40867 ft 486 kts 188°
2026-05-08 08:01 -12.06209 -68.00614 40857 ft 485 kts 188°
2026-05-08 08:02 -12.12958 -68.00961 40859 ft 487 kts 188°
2026-05-08 08:02 -12.19735 -68.01304 40864 ft 488 kts 188°
2026-05-08 08:03 -12.26533 -68.01649 40865 ft 490 kts 188°
2026-05-08 08:03 -12.33324 -68.01992 40863 ft 488 kts 188°
2026-05-08 08:04 -12.40093 -68.02336 40851 ft 486 kts 188°
2026-05-08 08:04 -12.46800 -68.02677 40846 ft 486 kts 188°
2026-05-08 08:05 -12.53566 -68.03021 40841 ft 487 kts 188°
2026-05-08 08:05 -12.60341 -68.03365 40854 ft 488 kts 188°
2026-05-08 08:06 -12.67127 -68.03710 40854 ft 488 kts 188°
2026-05-08 08:06 -12.73911 -68.04055 40848 ft 488 kts 188°
2026-05-08 08:07 -12.80696 -68.04401 40844 ft 488 kts 188°
2026-05-08 08:07 -12.87474 -68.04746 40843 ft 487 kts 188°
2026-05-08 08:08 -12.94244 -68.05091 40852 ft 487 kts 189°
2026-05-08 08:08 -13.00968 -68.05433 40843 ft 486 kts 188°
2026-05-08 08:09 -13.07731 -68.05779 40852 ft 487 kts 189°
2026-05-08 08:09 -13.14504 -68.06124 40848 ft 488 kts 188°
2026-05-08 08:10 -13.21288 -68.06471 40853 ft 488 kts 188°
2026-05-08 08:10 -13.28075 -68.06817 40847 ft 487 kts 188°
2026-05-08 08:11 -13.34842 -68.07163 40844 ft 486 kts 189°
2026-05-08 08:11 -13.41598 -68.07509 40841 ft 486 kts 189°
2026-05-08 08:12 -13.48320 -68.07853 40841 ft 488 kts 188°
2026-05-08 08:12 -13.55101 -68.08201 40850 ft 488 kts 188°
2026-05-08 08:13 -13.61904 -68.08550 40853 ft 490 kts 189°
2026-05-08 08:13 -13.68717 -68.08898 40854 ft 489 kts 189°
2026-05-08 08:14 -13.75508 -68.09247 40849 ft 488 kts 189°
2026-05-08 08:14 -13.82278 -68.09594 40846 ft 487 kts 189°
2026-05-08 08:15 -13.89038 -68.09941 40842 ft 486 kts 189°
2026-05-08 08:15 -13.95809 -68.10290 40855 ft 488 kts 189°
2026-05-08 08:16 -14.02549 -68.10636 40861 ft 489 kts 189°
2026-05-08 08:16 -14.09347 -68.10986 40858 ft 489 kts 189°
2026-05-08 08:17 -14.16154 -68.11336 40861 ft 489 kts 189°
2026-05-08 08:17 -14.22961 -68.11687 40867 ft 490 kts 189°
2026-05-08 08:18 -14.29768 -68.12036 40859 ft 489 kts 189°
2026-05-08 08:18 -14.36562 -68.12380 40870 ft 489 kts 189°
2026-05-08 08:19 -14.43370 -68.12728 40878 ft 489 kts 189°
2026-05-08 08:19 -14.50154 -68.13070 40872 ft 487 kts 189°
2026-05-08 08:20 -14.56943 -68.13418 40892 ft 489 kts 189°
2026-05-08 08:20 -14.63730 -68.13762 40892 ft 488 kts 189°
2026-05-08 08:21 -14.70518 -68.14109 40893 ft 487 kts 189°
2026-05-08 08:21 -14.77303 -68.14455 40883 ft 489 kts 189°
2026-05-08 08:22 -14.84095 -68.14801 40898 ft 489 kts 189°
2026-05-08 08:22 -14.90897 -68.15148 40910 ft 490 kts 189°
2026-05-08 08:23 -14.97725 -68.15497 40888 ft 489 kts 189°
2026-05-08 08:23 -15.04503 -68.15843 40877 ft 486 kts 189°
2026-05-08 08:24 -15.11278 -68.16191 40876 ft 488 kts 189°
2026-05-08 08:24 -15.18030 -68.16535 40877 ft 490 kts 189°
2026-05-08 08:25 -15.24835 -68.16884 40876 ft 490 kts 189°
2026-05-08 08:25 -15.31664 -68.17234 40873 ft 492 kts 189°
2026-05-08 08:26 -15.38498 -68.17584 40880 ft 491 kts 189°
2026-05-08 08:26 -15.45322 -68.17934 40880 ft 491 kts 189°
2026-05-08 08:27 -15.52135 -68.18284 40901 ft 490 kts 189°
2026-05-08 08:27 -15.58950 -68.18635 40904 ft 491 kts 189°
2026-05-08 08:28 -15.65784 -68.18985 40925 ft 492 kts 189°
2026-05-08 08:28 -15.72618 -68.19335 40921 ft 491 kts 189°
2026-05-08 08:29 -15.79429 -68.19684 40984 ft 489 kts 189°
2026-05-08 08:29 -15.86220 -68.20034 41003 ft 489 kts 189°
2026-05-08 08:30 -15.93030 -68.20385 41046 ft 488 kts 189°
2026-05-08 08:30 -16.03129 -68.20904 41080 ft 487 kts 189°
2026-05-08 08:31 -16.09916 -68.21251 41079 ft 489 kts 189°
2026-05-08 08:31 -16.16709 -68.21591 41099 ft 489 kts 189°
2026-05-08 08:32 -16.23503 -68.21934 41256 ft 489 kts 189°
2026-05-08 08:32 -16.30300 -68.22277 41387 ft 488 kts 189°
2026-05-08 08:33 -16.37040 -68.22618 41504 ft 487 kts 189°
2026-05-08 08:33 -16.43662 -68.22952 41609 ft 487 kts 189°
2026-05-08 08:34 -16.50425 -68.23294 41609 ft 486 kts 189°
2026-05-08 08:34 -16.57115 -68.23979 41615 ft 485 kts 192°
2026-05-08 08:35 -16.63833 -68.24687 41535 ft 485 kts 192°
2026-05-08 08:35 -16.70546 -68.25418 41418 ft 485 kts 192°
2026-05-08 08:36 -16.77264 -68.26137 41293 ft 485 kts 192°
2026-05-08 08:36 -16.83980 -68.26864 41166 ft 485 kts 192°
2026-05-08 08:37 -16.90691 -68.27587 41131 ft 484 kts 193°
2026-05-08 08:37 -16.97393 -68.28311 41139 ft 484 kts 193°
2026-05-08 08:38 -17.04098 -68.29036 41134 ft 484 kts 192°
2026-05-08 08:38 -17.10805 -68.29760 41146 ft 484 kts 193°
2026-05-08 08:39 -17.17507 -68.30486 41142 ft 485 kts 192°
2026-05-08 08:39 -17.24183 -68.31208 41152 ft 486 kts 193°
2026-05-08 08:40 -17.30929 -68.31940 41153 ft 488 kts 193°
2026-05-08 08:40 -17.37684 -68.32672 41155 ft 488 kts 193°
2026-05-08 08:41 -17.44442 -68.33406 41161 ft 488 kts 193°
2026-05-08 08:41 -17.51191 -68.34127 41168 ft 487 kts 193°
2026-05-08 08:42 -17.57924 -68.34852 41167 ft 486 kts 193°
2026-05-08 08:42 -17.64659 -68.35576 41169 ft 486 kts 193°
2026-05-08 08:43 -17.71380 -68.36299 41171 ft 485 kts 193°
2026-05-08 08:43 -17.78095 -68.37023 41170 ft 486 kts 193°
2026-05-08 08:44 -17.83687 -68.37626 41172 ft 487 kts 193°
2026-05-08 08:44 -17.91547 -68.38475 41178 ft 491 kts 193°
2026-05-08 08:45 -17.98350 -68.39206 41172 ft 491 kts 193°
2026-05-08 08:45 -18.04038 -68.39822 41163 ft 490 kts 193°
2026-05-08 08:46 -18.10821 -68.40544 41167 ft 490 kts 193°
2026-05-08 08:46 -18.17566 -68.41261 41148 ft 491 kts 193°
2026-05-08 08:47 -18.24338 -68.41982 41149 ft 488 kts 193°
2026-05-08 08:47 -18.31088 -68.42704 41147 ft 488 kts 193°
2026-05-08 08:48 -18.37865 -68.43427 41148 ft 490 kts 193°
2026-05-08 08:48 -18.44661 -68.44152 41156 ft 491 kts 193°
2026-05-08 08:49 -18.51447 -68.44877 41167 ft 489 kts 193°
2026-05-08 08:49 -18.58181 -68.45596 41143 ft 484 kts 194°
2026-05-08 08:50 -18.64887 -68.46318 41149 ft 485 kts 194°
2026-05-08 08:50 -18.71618 -68.47037 41152 ft 487 kts 193°
2026-05-08 08:51 -18.78326 -68.47757 41151 ft 488 kts 193°
2026-05-08 08:51 -18.85084 -68.48481 41148 ft 488 kts 193°
2026-05-08 08:52 -18.91838 -68.49208 41146 ft 488 kts 193°
2026-05-08 08:52 -18.98605 -68.49935 41148 ft 489 kts 193°
2026-05-08 08:53 -19.05376 -68.50663 41144 ft 489 kts 193°
2026-05-08 08:53 -19.12132 -68.51390 41142 ft 487 kts 194°
2026-05-08 08:54 -19.18879 -68.52118 41131 ft 486 kts 193°
2026-05-08 08:54 -19.25593 -68.52840 41127 ft 484 kts 193°
2026-05-08 08:55 -19.32298 -68.53566 41139 ft 485 kts 193°
2026-05-08 08:55 -19.39015 -68.54291 41137 ft 486 kts 193°
2026-05-08 08:56 -19.45745 -68.55019 41146 ft 487 kts 193°
2026-05-08 08:56 -19.52480 -68.55746 41142 ft 485 kts 193°
2026-05-08 08:57 -19.59139 -68.56468 41150 ft 484 kts 193°
2026-05-08 08:57 -19.65838 -68.57194 41141 ft 483 kts 193°
2026-05-08 08:58 -19.72529 -68.57920 41145 ft 483 kts 193°
2026-05-08 08:58 -19.79214 -68.58646 41136 ft 483 kts 193°
2026-05-08 08:59 -19.85885 -68.59370 41141 ft 481 kts 193°
2026-05-08 08:59 -19.92551 -68.60096 41158 ft 482 kts 193°
2026-05-08 09:00 -19.99238 -68.60823 41156 ft 483 kts 193°
2026-05-08 09:00 -20.05925 -68.61553 41160 ft 482 kts 193°
2026-05-08 09:01 -20.12558 -68.62275 41166 ft 482 kts 193°
2026-05-08 09:01 -20.19194 -68.62997 41161 ft 477 kts 193°
2026-05-08 09:02 -20.25796 -68.63722 41154 ft 477 kts 193°
2026-05-08 09:02 -20.32405 -68.64442 41158 ft 477 kts 193°
2026-05-08 09:03 -20.39016 -68.65166 41162 ft 477 kts 193°
2026-05-08 09:03 -20.45611 -68.65888 41170 ft 476 kts 192°
2026-05-08 09:04 -20.52192 -68.66608 41167 ft 475 kts 192°
2026-05-08 09:04 -20.58791 -68.67302 41166 ft 477 kts 192°
2026-05-08 09:05 -20.65392 -68.67995 41161 ft 476 kts 192°
2026-05-08 09:05 -20.71943 -68.68689 41165 ft 476 kts 192°
2026-05-08 09:06 -20.78529 -68.69384 41166 ft 475 kts 192°
2026-05-08 09:06 -20.85111 -68.70081 41167 ft 476 kts 192°
2026-05-08 09:07 -20.91717 -68.70780 41169 ft 478 kts 192°
2026-05-08 09:07 -20.98321 -68.71479 41178 ft 477 kts 192°
2026-05-08 09:08 -21.04945 -68.72183 41177 ft 479 kts 192°
2026-05-08 09:08 -21.11578 -68.72886 41151 ft 479 kts 191°
2026-05-08 09:09 -21.18197 -68.73589 41146 ft 478 kts 191°
2026-05-08 09:09 -21.24811 -68.74283 41135 ft 477 kts 191°
2026-05-08 09:10 -21.31407 -68.74975 41134 ft 477 kts 191°